FW4770 Weather Reports


time (UTC)temp
F
wind
direction
speed
knots
gust
knots
rain 1hr
in
rain 24hr
in
rain mn
in
humidity
%
barometer
mb
20260507105710 29 70 0.0 1.7 0.00 0.00 0.00 88 1014.0
20260507105635 29 360 0.0 1.7 0.00 0.00 0.00 88 1014.0
20260507105517 29 360 0.0 1.7 0.00 0.00 0.00 88 1014.0
20260507105420 29 360 0.0 1.7 0.00 0.00 0.00 88 1013.9
20260507105307 29 51 0.0 2.6 0.00 0.00 0.00 89 1013.9
20260507105231 29 51 0.0 2.6 0.00 0.00 0.00 89 1013.9
20260507105113 29 51 0.0 2.6 0.00 0.00 0.00 89 1013.9
20260507105016 29 51 0.9 2.6 0.00 0.00 0.00 89 1014.0
20260507104920 29 51 0.9 2.6 0.00 0.00 0.00 89 1013.9
20260507104822 29 51 0.9 2.6 0.00 0.00 0.00 89 1014.0
20260507104746 29 51 0.9 2.6 0.00 0.00 0.00 89 1013.9
20260507104632 29 51 0.9 2.6 0.00 0.00 0.00 89 1013.8
20260507104508 29 51 1.7 2.6 0.00 0.00 0.00 89 1013.9
20260507104411 29 51 1.7 2.6 0.00 0.00 0.00 89 1013.8
20260507104314 29 51 2.6 2.6 0.00 0.00 0.00 89 1013.9
20260507104217 29 51 2.6 2.6 0.00 0.00 0.00 89 1013.8
20260507104120 29 51 1.7 2.6 0.00 0.00 0.00 89 1013.9
20260507104006 29 51 1.7 2.6 0.00 0.00 0.00 89 1013.8
20260507103930 29 51 0.9 1.7 0.00 0.00 0.00 88 1013.8
20260507103832 29 51 0.9 1.7 0.00 0.00 0.00 88 1013.7
20260507103708 29 51 0.9 1.7 0.00 0.00 0.00 89 1013.8
20260507103612 29 51 0.9 1.7 0.00 0.00 0.00 89 1013.8
20260507103515 29 51 0.9 1.7 0.00 0.00 0.00 89 1013.8
20260507103438 29 51 0.9 1.7 0.00 0.00 0.00 89 1013.8
20260507103341 29 51 0.9 1.7 0.00 0.00 0.00 89 1013.8
20260507103206 29 51 0.9 2.6 0.00 0.00 0.00 89 1013.8
20260507103109 29 51 0.9 2.6 0.00 0.00 0.00 89 1013.8
20260507103012 29 51 0.9 2.6 0.00 0.00 0.00 89 1013.8
20260507102914 29 51 0.9 3.5 0.00 0.00 0.00 89 1013.8
20260507102817 29 51 0.9 3.5 0.00 0.00 0.00 89 1013.8
20260507102721 29 51 1.7 3.5 0.00 0.00 0.00 89 1013.8
20260507102607 29 51 1.7 3.5 0.00 0.00 0.00 89 1013.8
20260507102530 29 51 1.7 3.5 0.00 0.00 0.00 89 1013.8
20260507102432 29 51 1.7 3.5 0.00 0.00 0.00 89 1013.9
20260507102315 29 51 1.7 3.5 0.00 0.00 0.00 89 1013.8
20260507102238 29 51 2.6 3.5 0.00 0.00 0.00 89 1013.9
20260507102120 29 51 2.6 3.5 0.00 0.00 0.00 89 1013.8
20260507102044 29 51 2.6 3.5 0.00 0.00 0.00 89 1013.9
20260507101910 29 51 2.6 3.5 0.00 0.00 0.00 89 1013.9
20260507101813 29 51 2.6 3.5 0.00 0.00 0.00 89 1013.9
20260507101714 29 51 1.7 3.5 0.00 0.00 0.00 90 1013.9
20260507101615 29 263 0.0 1.7 0.00 0.00 0.00 89 1013.9
20260507101516 29 263 0.0 1.7 0.00 0.00 0.00 90 1013.9
20260507101416 29 263 0.0 1.7 0.00 0.00 0.00 89 1013.8
20260507101320 29 263 0.0 1.7 0.00 0.00 0.00 89 1013.7
20260507101206 29 263 0.0 2.6 0.00 0.00 0.00 89 1013.8
20260507101130 29 263 0.0 2.6 0.00 0.00 0.00 89 1013.8
20260507101006 29 263 0.9 2.6 0.00 0.00 0.00 89 1013.7
20260507100929 29 263 0.9 2.6 0.00 0.00 0.00 89 1013.8
20260507100830 29 263 0.9 2.6 0.00 0.00 0.00 89 1013.8
20260507100714 29 263 0.9 2.6 0.00 0.00 0.00 89 1013.8
20260507100618 29 263 0.9 2.6 0.00 0.00 0.00 89 1013.8
20260507100507 29 263 1.7 2.6 0.00 0.00 0.00 89 1013.7
20260507100430 29 263 1.7 2.6 0.00 0.00 0.00 89 1013.8
20260507100333 29 263 1.7 2.6 0.00 0.00 0.00 89 1013.8
20260507100208 29 263 1.7 2.6 0.00 0.00 0.00 89 1013.8
20260507100111 29 263 1.7 2.6 0.00 0.00 0.00 89 1013.7
20260507100036 29 263 1.7 2.6 0.00 0.00 0.00 89 1013.8
20260507095920 29 263 1.7 2.6 0.00 0.00 0.00 89 1013.8
20260507095809 29 263 1.7 2.6 0.00 0.00 0.00 89 1013.8
20260507095713 29 263 1.7 2.6 0.00 0.00 0.00 89 1013.8
20260507095618 29 263 1.7 1.7 0.00 0.00 0.00 89 1013.8
20260507095521 29 263 0.9 1.7 0.00 0.00 0.00 89 1013.9
20260507095446 29 263 0.9 1.7 0.00 0.00 0.00 89 1013.9
20260507095308 29 263 0.0 0.0 0.00 0.00 0.00 89 1013.9
20260507095237 29 263 0.0 0.0 0.00 0.00 0.00 89 1013.8
20260507095121 29 263 0.0 0.0 0.00 0.00 0.00 89 1013.9
20260507095006 29 263 0.0 0.0 0.00 0.00 0.00 89 1013.9
20260507094911 29 263 0.0 0.0 0.00 0.00 0.00 89 1013.9
20260507094815 29 263 0.0 0.0 0.00 0.00 0.00 89 1013.9
20260507094720 29 263 0.0 0.0 0.00 0.00 0.00 89 1013.9
20260507094608 29 263 0.0 0.0 0.00 0.00 0.00 89 1013.9
20260507094533 29 263 0.0 0.0 0.00 0.00 0.00 89 1014.0
20260507094418 29 263 0.0 0.0 0.00 0.00 0.00 89 1014.0
20260507094342 29 263 0.0 0.0 0.00 0.00 0.00 89 1013.9
20260507094207 29 263 0.0 0.0 0.00 0.00 0.00 89 1013.9
20260507094111 29 263 0.0 0.0 0.00 0.00 0.00 89 1014.0
20260507094035 29 263 0.0 0.0 0.00 0.00 0.00 89 1013.9
20260507093923 29 263 0.0 0.0 0.00 0.00 0.00 89 1013.9
20260507093845 29 263 0.0 0.0 0.00 0.00 0.00 89 1013.9
20260507093710 29 263 0.0 0.0 0.00 0.00 0.00 89 1014.0
20260507093614 29 263 0.0 0.0 0.00 0.00 0.00 89 1014.0
20260507093519 29 263 0.0 0.0 0.00 0.00 0.00 89 1013.9
20260507093444 29 263 0.0 0.0 0.00 0.00 0.00 89 1014.0
20260507093307 29 263 0.0 0.0 0.00 0.00 0.00 89 1013.9
20260507093237 29 263 0.0 0.0 0.00 0.00 0.00 89 1013.9
20260507093118 29 263 0.0 0.0 0.00 0.00 0.00 89 1013.9
20260507093024 29 263 0.0 0.0 0.00 0.00 0.00 89 1013.9
20260507092927 29 263 0.0 0.0 0.00 0.00 0.00 89 1013.9
20260507092811 29 263 0.0 0.0 0.00 0.00 0.00 90 1014.0
20260507092714 29 263 0.0 0.0 0.00 0.00 0.00 90 1014.0
20260507092620 29 263 0.0 0.0 0.00 0.00 0.00 90 1014.0
20260507092508 29 263 0.0 0.0 0.00 0.00 0.00 90 1014.0
20260507092411 29 263 0.0 0.0 0.00 0.00 0.00 90 1014.0
20260507092315 29 263 0.0 0.0 0.00 0.00 0.00 90 1014.0
20260507092220 29 263 0.0 0.0 0.00 0.00 0.00 90 1014.0
20260507092122 29 263 0.0 0.0 0.00 0.00 0.00 90 1014.0
20260507092012 29 263 0.0 0.9 0.00 0.00 0.00 90 1013.9
20260507091915 29 263 0.0 0.9 0.00 0.00 0.00 90 1014.0
20260507091841 29 263 0.0 0.9 0.00 0.00 0.00 90 1014.0
20260507091706 29 263 0.0 0.9 0.00 0.00 0.00 90 1014.0
20260507091632 29 263 0.0 0.9 0.00 0.00 0.00 90 1014.0
20260507091536 29 263 0.0 0.9 0.00 0.00 0.00 90 1014.0
20260507091421 29 263 0.0 0.9 0.00 0.00 0.00 90 1014.0
20260507091311 29 263 0.0 0.9 0.00 0.00 0.00 90 1013.9
20260507091217 29 263 0.0 0.9 0.00 0.00 0.00 90 1014.0
20260507091123 28 263 0.0 0.9 0.00 0.00 0.00 90 1014.0
20260507091007 28 263 0.0 0.0 0.00 0.00 0.00 90 1014.0
20260507090934 28 263 0.0 0.0 0.00 0.00 0.00 90 1014.0
20260507090818 28 263 0.0 0.9 0.00 0.00 0.00 90 1013.9
20260507090706 29 263 0.0 0.9 0.00 0.00 0.00 90 1013.9
20260507090612 28 263 0.0 0.9 0.00 0.00 0.00 90 1013.9
20260507090517 28 263 0.0 1.7 0.00 0.00 0.00 90 1014.0
20260507090424 28 263 0.0 1.7 0.00 0.00 0.00 90 1013.9
20260507090309 28 263 0.0 1.7 0.00 0.00 0.00 90 1013.9
20260507090234 28 263 0.0 1.7 0.00 0.00 0.00 90 1013.9
20260507090137 28 263 0.0 1.7 0.00 0.00 0.00 90 1013.9
20260507090025 28 263 0.0 1.7 0.00 0.00 0.00 90 1013.9
20260507085950 28 263 0.9 1.7 0.00 0.00 0.00 90 1013.9
20260507085806 28 263 0.9 2.6 0.00 0.00 0.00 90 1013.9
20260507085710 28 263 1.7 2.6 0.00 0.00 0.00 90 1013.9
20260507085615 28 263 1.7 2.6 0.00 0.00 0.00 90 1014.0
20260507085520 28 263 1.7 2.6 0.00 0.00 0.00 90 1013.9
20260507085409 28 263 1.7 2.6 0.00 0.00 0.00 90 1013.8
20260507085334 28 263 1.7 2.6 0.00 0.00 0.00 90 1013.9
20260507085218 28 263 1.7 2.6 0.00 0.00 0.00 90 1013.9
20260507085121 28 263 1.7 2.6 0.00 0.00 0.00 90 1013.9
20260507085045 28 263 1.7 2.6 0.00 0.00 0.00 90 1013.9
20260507084929 28 263 1.7 2.6 0.00 0.00 0.00 90 1013.8
20260507084833 28 263 1.7 2.6 0.00 0.00 0.00 90 1013.8
20260507084736 28 263 1.7 2.6 0.00 0.00 0.00 89 1013.8
20260507084619 28 263 1.7 2.6 0.00 0.00 0.00 89 1013.8
20260507084508 28 263 0.9 2.6 0.00 0.00 0.00 89 1013.8
20260507084414 28 263 1.7 2.6 0.00 0.00 0.00 89 1013.8
20260507084338 28 263 1.7 2.6 0.00 0.00 0.00 89 1013.9
20260507084221 28 263 1.7 2.6 0.00 0.00 0.00 89 1013.9
20260507084126 28 263 1.7 2.6 0.00 0.00 0.00 89 1013.8
20260507084031 28 263 1.7 2.6 0.00 0.00 0.00 89 1013.8
20260507083934 28 263 1.7 2.6 0.00 0.00 0.00 89 1013.8
20260507083821 28 263 1.7 2.6 0.00 0.00 0.00 89 1013.8
20260507083705 28 272 1.7 2.6 0.00 0.00 0.00 89 1013.8
20260507083609 28 272 1.7 2.6 0.00 0.00 0.00 89 1013.8
20260507083514 28 272 0.9 2.6 0.00 0.00 0.00 89 1013.8
20260507083438 28 272 0.9 2.6 0.00 0.00 0.00 89 1013.9
20260507083322 28 272 0.9 2.6 0.00 0.00 0.00 89 1013.9
20260507083211 28 272 1.7 2.6 0.00 0.00 0.00 89 1013.9
20260507083114 28 272 1.7 2.6 0.00 0.00 0.00 89 1013.9
20260507083018 28 272 1.7 2.6 0.00 0.00 0.00 89 1013.9
20260507082922 28 272 1.7 2.6 0.00 0.00 0.00 89 1013.9
20260507082806 28 272 0.9 1.7 0.00 0.00 0.00 88 1013.9
20260507082710 28 272 0.9 1.7 0.00 0.00 0.00 89 1013.9
20260507082635 28 272 0.9 1.7 0.00 0.00 0.00 89 1013.9
20260507082522 28 272 0.9 1.7 0.00 0.00 0.00 89 1013.9
20260507082446 28 272 0.9 1.7 0.00 0.00 0.00 89 1013.9
20260507082309 28 272 0.9 1.7 0.00 0.00 0.00 89 1013.9
20260507082212 28 272 0.9 1.7 0.00 0.00 0.00 88 1013.9
20260507082117 28 272 0.9 1.7 0.00 0.00 0.00 88 1013.9
20260507082019 28 272 0.9 2.6 0.00 0.00 0.00 88 1013.9
20260507081929 28 272 0.9 2.6 0.00 0.00 0.00 88 1013.8
20260507081805 28 272 0.9 2.6 0.00 0.00 0.00 88 1013.9
20260507081709 28 272 0.9 2.6 0.00 0.00 0.00 88 1013.9
20260507081613 28 272 0.9 2.6 0.00 0.00 0.00 88 1013.9
20260507081517 28 272 0.9 2.6 0.00 0.00 0.00 88 1013.9
20260507081420 28 272 1.7 2.6 0.00 0.00 0.00 88 1013.9
20260507081329 28 272 1.7 2.6 0.00 0.00 0.00 88 1013.9
20260507081206 28 272 1.7 2.6 0.00 0.00 0.00 88 1013.9
20260507081110 28 272 1.7 2.6 0.00 0.00 0.00 88 1013.9
20260507081012 28 275 1.7 1.7 0.00 0.00 0.00 88 1013.9
20260507080916 28 276 0.9 1.7 0.00 0.00 0.00 88 1014.0
20260507080821 28 276 0.9 1.7 0.00 0.00 0.00 88 1013.9
20260507080729 28 276 0.9 1.7 0.00 0.00 0.00 88 1013.9
20260507080606 28 276 0.9 1.7 0.00 0.00 0.00 88 1014.0
20260507080529 28 276 0.9 1.7 0.00 0.00 0.00 88 1014.0
20260507080412 28 276 1.7 1.7 0.00 0.00 0.00 88 1013.9
20260507080315 28 276 0.9 1.7 0.00 0.00 0.00 88 1014.0
20260507080240 28 276 0.9 1.7 0.00 0.00 0.00 88 1013.9
20260507080122 28 276 0.9 1.7 0.00 0.00 0.00 88 1013.9
20260507080030 28 276 0.9 1.7 0.00 0.00 0.00 88 1013.9
20260507075905 28 276 0.9 1.7 0.00 0.00 0.00 88 1013.9
20260507075829 28 276 0.9 1.7 0.00 0.00 0.00 88 1013.8
20260507075752 28 276 0.9 1.7 0.00 0.00 0.00 87 1013.9
20260507075608 28 276 0.9 1.7 0.00 0.00 0.00 87 1013.9
20260507075510 28 281 0.0 0.0 0.00 0.00 0.00 87 1013.9
20260507075434 28 281 0.0 0.0 0.00 0.00 0.00 87 1013.8
20260507075338 28 281 0.0 0.0 0.00 0.00 0.00 87 1013.8
20260507075225 28 281 0.0 0.0 0.00 0.00 0.00 87 1013.8
20260507075108 28 281 0.0 0.0 0.00 0.00 0.00 87 1013.8
20260507075013 28 281 0.0 0.0 0.00 0.00 0.00 87 1013.8
20260507074916 28 281 0.0 0.0 0.00 0.00 0.00 86 1013.8
20260507074840 28 281 0.0 0.0 0.00 0.00 0.00 86 1013.8
20260507074724 28 281 0.0 0.0 0.00 0.00 0.00 86 1013.8
20260507074613 28 281 0.0 0.0 0.00 0.00 0.00 86 1013.8
20260507074537 28 281 0.0 0.0 0.00 0.00 0.00 86 1013.8
20260507074420 28 281 0.0 0.0 0.00 0.00 0.00 86 1013.8
20260507074305 29 281 0.0 0.0 0.00 0.00 0.00 86 1013.9
20260507074210 29 281 0.0 0.0 0.00 0.00 0.00 86 1013.8
20260507074116 29 281 0.0 0.0 0.00 0.00 0.00 86 1013.9
20260507074024 29 281 0.0 0.0 0.00 0.00 0.00 86 1013.8
20260507073928 29 281 0.0 0.0 0.00 0.00 0.00 86 1013.8
20260507073812 29 281 0.0 0.0 0.00 0.00 0.00 86 1013.9
20260507073717 29 281 0.0 0.0 0.00 0.00 0.00 86 1013.8
20260507073621 29 281 0.0 0.0 0.00 0.00 0.00 86 1013.8
20260507073526 29 281 0.0 0.0 0.00 0.00 0.00 86 1013.9
20260507073408 29 281 0.0 0.0 0.00 0.00 0.00 86 1013.9
20260507073317 29 281 0.0 0.0 0.00 0.00 0.00 86 1013.9
20260507073222 29 281 0.0 0.0 0.00 0.00 0.00 86 1013.9
20260507073107 29 281 0.0 0.0 0.00 0.00 0.00 86 1014.0
20260507073012 29 281 0.0 0.0 0.00 0.00 0.00 86 1013.9
20260507072916 29 281 0.0 0.0 0.00 0.00 0.00 86 1014.0
20260507072820 29 281 0.0 0.0 0.00 0.00 0.00 86 1014.0
20260507072729 29 281 0.0 0.0 0.00 0.00 0.00 86 1014.1
20260507072605 29 281 0.0 0.0 0.00 0.00 0.00 86 1014.0
20260507072528 29 281 0.0 0.0 0.00 0.00 0.00 86 1014.1
20260507072405 29 281 0.0 0.0 0.00 0.00 0.00 86 1014.1
20260507072330 29 281 0.0 0.0 0.00 0.00 0.00 86 1014.1
20260507072214 29 281 0.0 0.0 0.00 0.00 0.00 86 1014.1
20260507072122 29 281 0.0 0.0 0.00 0.00 0.00 86 1014.1
20260507072027 30 281 0.0 0.0 0.00 0.00 0.00 86 1014.1
20260507071910 30 281 0.0 0.0 0.00 0.00 0.00 85 1014.2
20260507071835 30 281 0.0 0.0 0.00 0.00 0.00 85 1014.2
20260507071739 30 281 0.0 0.0 0.00 0.00 0.00 85 1014.1
20260507071623 30 281 0.0 0.0 0.00 0.00 0.00 85 1014.3
20260507071506 30 281 0.0 0.0 0.00 0.00 0.00 85 1014.2
20260507071415 30 281 0.0 0.0 0.00 0.00 0.00 85 1014.2
20260507071318 30 281 0.0 0.0 0.00 0.00 0.00 85 1014.3
20260507071222 30 281 0.0 0.0 0.00 0.00 0.00 85 1014.3
20260507071106 30 281 0.0 0.0 0.00 0.00 0.00 85 1014.3
20260507071010 30 281 0.0 0.0 0.00 0.00 0.00 85 1014.3
20260507070936 30 281 0.0 0.0 0.00 0.00 0.00 85 1014.3
20260507070818 30 281 0.0 0.0 0.00 0.00 0.00 84 1014.3
20260507070707 30 281 0.0 0.0 0.00 0.00 0.00 84 1014.3
20260507070630 30 281 0.0 0.0 0.00 0.00 0.00 84 1014.4
20260507070505 30 281 0.0 0.0 0.00 0.00 0.00 84 1014.3
20260507070409 30 281 0.0 0.0 0.00 0.00 0.00 84 1014.4
20260507070313 30 281 0.0 0.0 0.00 0.00 0.00 84 1014.4
20260507070217 30 281 0.0 0.0 0.00 0.00 0.00 84 1014.4
20260507070144 30 281 0.0 0.0 0.00 0.00 0.00 84 1014.4
20260507070010 30 281 0.0 0.0 0.00 0.00 0.00 84 1014.4
20260507065929 30 281 0.0 0.0 0.00 0.00 0.00 84 1014.4
20260507065831 30 281 0.0 0.0 0.00 0.00 0.00 84 1014.4
20260507065713 30 281 0.0 0.0 0.00 0.00 0.00 83 1014.4
20260507065616 30 281 0.0 0.0 0.00 0.00 0.00 83 1014.5
20260507065519 30 281 0.0 0.0 0.00 0.00 0.00 83 1014.5
20260507065406 30 281 0.0 0.0 0.00 0.00 0.00 83 1014.5
20260507065310 30 281 0.0 0.0 0.00 0.00 0.00 83 1014.5
20260507065235 30 281 0.0 0.0 0.00 0.00 0.00 83 1014.5
20260507065119 30 281 0.0 0.0 0.00 0.00 0.00 82 1014.5
20260507065024 30 281 0.0 0.0 0.00 0.00 0.00 82 1014.5
20260507064928 31 281 0.0 0.0 0.00 0.00 0.00 81 1014.5
20260507064811 31 281 0.0 0.0 0.00 0.00 0.00 81 1014.5
20260507064739 31 281 0.0 0.0 0.00 0.00 0.00 81 1014.5
20260507064622 31 281 0.0 0.0 0.00 0.00 0.00 81 1014.5
20260507064527 31 281 0.0 0.0 0.00 0.00 0.00 81 1014.6
20260507064410 31 281 0.0 0.0 0.00 0.00 0.00 80 1014.5
20260507064316 31 281 0.0 0.0 0.00 0.00 0.00 81 1014.5
20260507064219 31 281 0.0 0.0 0.00 0.00 0.00 80 1014.5
20260507064106 31 281 0.0 0.0 0.00 0.00 0.00 80 1014.6
20260507064009 31 281 0.0 0.0 0.00 0.00 0.00 80 1014.6
20260507063929 31 281 0.0 0.0 0.00 0.00 0.00 80 1014.5
20260507063805 31 281 0.0 0.0 0.00 0.00 0.00 80 1014.6
20260507063709 31 281 0.0 0.0 0.00 0.00 0.00 80 1014.5
20260507063613 31 281 0.0 0.0 0.00 0.00 0.00 80 1014.5
20260507063518 31 281 0.0 0.0 0.00 0.00 0.00 80 1014.6
20260507063407 31 281 0.0 0.0 0.00 0.00 0.00 80 1014.5
20260507063330 31 281 0.0 0.0 0.00 0.00 0.00 80 1014.5
20260507063213 32 281 0.0 0.0 0.00 0.00 0.00 80 1014.5
20260507063117 32 281 0.0 0.0 0.00 0.00 0.00 80 1014.6
20260507063022 32 281 0.0 0.0 0.00 0.00 0.00 80 1014.6
20260507062926 32 281 0.0 0.0 0.00 0.00 0.00 80 1014.6
20260507062813 32 281 0.0 0.0 0.00 0.00 0.00 80 1014.6
20260507062715 32 281 0.0 0.0 0.00 0.00 0.00 80 1014.6
20260507062638 32 281 0.0 0.0 0.00 0.00 0.00 80 1014.6
20260507062521 32 281 0.0 0.0 0.00 0.00 0.00 80 1014.6
20260507062424 32 281 0.0 0.0 0.00 0.00 0.00 80 1014.6
20260507062308 32 281 0.0 0.0 0.00 0.00 0.00 80 1014.6
20260507062209 32 281 0.0 0.0 0.00 0.00 0.00 80 1014.6
20260507062114 32 281 0.0 0.0 0.00 0.00 0.00 80 1014.6
20260507062015 32 281 0.0 0.0 0.00 0.00 0.00 80 1014.7
20260507061914 32 281 0.0 0.9 0.00 0.00 0.00 80 1014.6
20260507061815 32 281 0.0 0.9 0.00 0.00 0.00 80 1014.7
20260507061714 32 281 0.0 0.9 0.00 0.00 0.00 80 1014.6
20260507061615 32 281 0.0 0.9 0.00 0.00 0.00 80 1014.7
20260507061520 32 281 0.0 0.9 0.00 0.00 0.00 80 1014.7
20260507061420 33 281 0.0 0.9 0.00 0.00 0.00 80 1014.7
20260507061321 33 281 0.0 0.9 0.00 0.00 0.00 80 1014.7
20260507061222 33 281 0.0 0.9 0.00 0.00 0.00 80 1014.7
20260507061122 33 281 0.0 0.9 0.00 0.00 0.00 80 1014.7
20260507061042 33 281 0.0 0.0 0.00 0.00 0.00 80 1014.7
20260507060922 33 281 0.0 0.0 0.00 0.00 0.00 80 1014.7
20260507060826 33 281 0.0 0.0 0.00 0.00 0.00 80 1014.7
20260507060727 33 281 0.0 0.9 0.00 0.00 0.00 80 1014.7
20260507060608 33 281 0.0 1.7 0.00 0.00 0.00 80 1014.7
20260507060509 33 281 0.0 1.7 0.00 0.00 0.00 80 1014.7
20260507060409 33 281 0.0 1.7 0.00 0.00 0.00 80 1014.8
20260507060309 33 281 0.0 1.7 0.00 0.00 0.00 80 1014.7
20260507060229 33 281 0.0 1.7 0.00 0.00 0.00 80 1014.8
20260507060158 33 281 0.0 1.7 0.00 0.00 0.00 79 1014.7
20260507060007 33 281 0.9 1.7 0.00 0.00 0.00 80 1014.8
20260507055909 33 281 0.9 1.7 0.00 0.00 0.00 80 1014.8
20260507055813 34 281 0.9 1.7 0.00 0.00 0.00 80 1014.8
20260507055715 34 281 0.9 1.7 0.00 0.00 0.00 80 1014.8
20260507055618 34 281 0.9 1.7 0.00 0.00 0.00 80 1014.8
20260507055505 34 281 0.9 1.7 0.00 0.00 0.00 80 1014.8
20260507055409 34 281 0.9 1.7 0.00 0.00 0.00 80 1014.8
20260507055312 34 281 0.9 1.7 0.00 0.00 0.00 80 1014.8
20260507055215 34 281 0.9 1.7 0.00 0.00 0.00 80 1014.8
20260507055119 34 281 0.9 1.7 0.00 0.00 0.00 80 1014.8
20260507055041 34 281 0.9 0.9 0.00 0.00 0.00 80 1014.8
20260507054907 34 281 0.9 0.9 0.00 0.00 0.00 80 1014.8
20260507054831 34 281 0.9 1.7 0.00 0.00 0.00 80 1014.8
20260507054707 34 281 0.9 1.7 0.00 0.00 0.00 79 1014.9
20260507054610 34 281 0.9 1.7 0.00 0.00 0.00 78 1014.8
20260507054513 34 281 0.9 1.7 0.00 0.00 0.00 78 1014.8
20260507054416 34 281 0.9 1.7 0.00 0.00 0.00 77 1014.9
20260507054319 34 281 0.9 1.7 0.00 0.00 0.00 77 1014.8
20260507054207 34 281 0.9 1.7 0.00 0.00 0.00 77 1014.9
20260507054129 34 281 0.9 1.7 0.00 0.00 0.00 77 1014.9
20260507054011 35 281 0.9 1.7 0.00 0.00 0.00 77 1014.8
20260507053915 35 281 0.9 1.7 0.00 0.00 0.00 77 1014.9
20260507053818 35 281 0.9 1.7 0.00 0.00 0.00 77 1014.9
20260507053721 35 281 0.9 1.7 0.00 0.00 0.00 77 1014.9
20260507053608 35 281 0.9 0.9 0.00 0.00 0.00 77 1014.9
20260507053511 35 281 0.9 0.9 0.00 0.00 0.00 77 1014.9
20260507053414 35 281 0.0 0.9 0.00 0.00 0.00 77 1014.9
20260507053317 35 281 0.0 0.9 0.00 0.00 0.00 77 1014.9
20260507053219 35 281 0.0 0.9 0.00 0.00 0.00 77 1014.9
20260507053122 35 281 0.0 1.7 0.00 0.00 0.00 78 1014.9
20260507053029 35 281 0.0 1.7 0.00 0.00 0.00 78 1014.8
20260507052905 35 281 0.0 1.7 0.00 0.00 0.00 78 1014.9
20260507052808 35 281 0.0 2.6 0.00 0.00 0.00 79 1014.9
20260507052711 35 281 0.0 2.6 0.00 0.00 0.00 79 1014.8
20260507052634 35 281 0.9 2.6 0.00 0.00 0.00 79 1014.9
20260507052515 35 281 0.9 2.6 0.00 0.00 0.00 79 1014.8
20260507052439 35 281 0.9 2.6 0.00 0.00 0.00 80 1014.8
20260507052306 36 281 0.9 2.6 0.00 0.00 0.00 80 1014.9
20260507052208 36 281 1.7 2.6 0.00 0.00 0.00 80 1014.9
20260507052111 36 281 1.7 2.6 0.00 0.00 0.00 80 1014.9
20260507052014 36 281 1.7 2.6 0.00 0.00 0.00 80 1014.9
20260507051917 36 281 1.7 2.6 0.00 0.00 0.00 80 1014.9
20260507051819 36 281 1.7 2.6 0.00 0.00 0.00 80 1014.9
20260507051707 36 281 1.7 2.6 0.00 0.00 0.00 79 1014.9
20260507051609 36 281 1.7 2.6 0.00 0.00 0.00 79 1014.9
20260507051532 36 281 1.7 2.6 0.00 0.00 0.00 79 1014.9
20260507051409 36 281 1.7 2.6 0.00 0.00 0.00 79 1014.9
20260507051332 36 281 1.7 2.6 0.00 0.00 0.00 78 1014.9
20260507051208 36 281 1.7 2.6 0.00 0.00 0.00 79 1015.0
20260507051116 36 280 1.7 1.7 0.00 0.00 0.00 79 1014.9
20260507051020 36 280 1.7 1.7 0.00 0.00 0.00 79 1014.9
20260507050924 36 280 1.7 1.7 0.00 0.00 0.00 78 1015.0
20260507050808 36 280 1.7 1.7 0.00 0.00 0.00 78 1015.0
20260507050733 36 280 1.7 1.7 0.00 0.00 0.00 78 1015.0
20260507050609 36 280 0.9 1.7 0.00 0.00 0.00 77 1015.0
20260507050533 36 280 0.9 1.7 0.00 0.00 0.00 78 1015.0
20260507050420 36 280 0.9 1.7 0.00 0.00 0.00 78 1015.0
20260507050323 36 280 0.9 1.7 0.00 0.00 0.00 79 1014.9
20260507050227 36 280 0.9 1.7 0.00 0.00 0.00 78 1015.0
20260507050130 36 280 0.9 1.7 0.00 0.00 0.00 78 1015.0
20260507050029 36 280 0.9 1.7 0.00 0.00 0.00 78 1014.9
20260507045907 36 280 1.7 1.7 0.00 0.00 0.00 78 1015.0
20260507045831 36 280 1.7 1.7 0.00 0.00 0.00 78 1015.0
20260507045719 36 280 1.7 1.7 0.00 0.00 0.00 77 1015.0
20260507045644 36 280 0.9 1.7 0.00 0.00 0.00 77 1015.0
20260507045508 36 280 0.9 1.7 0.00 0.00 0.00 77 1015.0
20260507045432 36 280 0.9 1.7 0.00 0.00 0.00 77 1014.9
20260507045308 36 280 1.7 2.6 0.00 0.00 0.00 77 1015.0
20260507045232 36 280 1.7 2.6 0.00 0.00 0.00 77 1015.0
20260507045115 36 280 0.9 2.6 0.00 0.00 0.00 77 1015.0
20260507045023 36 280 0.9 2.6 0.00 0.00 0.00 78 1015.0
20260507044927 36 280 0.9 2.6 0.00 0.00 0.00 77 1015.0
20260507044810 36 280 1.7 2.6 0.00 0.00 0.00 77 1015.0
20260507044714 36 280 1.7 2.6 0.00 0.00 0.00 77 1015.0
20260507044617 36 280 1.7 2.6 0.00 0.00 0.00 78 1015.1
20260507044521 36 280 1.7 2.6 0.00 0.00 0.00 78 1015.0
20260507044430 36 281 1.7 2.6 0.00 0.00 0.00 78 1015.1
20260507044314 36 281 1.7 2.6 0.00 0.00 0.00 78 1015.1
20260507044217 36 281 1.7 2.6 0.00 0.00 0.00 78 1015.1
20260507044122 36 281 1.7 2.6 0.00 0.00 0.00 78 1015.1
20260507044005 36 281 1.7 2.6 0.00 0.00 0.00 78 1015.2
20260507043911 36 281 1.7 2.6 0.00 0.00 0.00 77 1015.1
20260507043836 36 280 1.7 2.6 0.00 0.00 0.00 77 1015.1
20260507043743 36 281 0.9 2.6 0.00 0.00 0.00 76 1015.1
20260507043628 36 281 1.7 2.6 0.00 0.00 0.00 76 1015.1
20260507043530 36 280 1.7 2.6 0.00 0.00 0.00 76 1015.1
20260507043406 36 281 1.7 2.6 0.00 0.00 0.00 77 1015.1
20260507043311 36 281 1.7 2.6 0.00 0.00 0.00 77 1015.1
20260507043215 36 281 1.7 2.6 0.00 0.00 0.00 77 1015.1
20260507043118 36 280 1.7 2.6 0.00 0.00 0.00 76 1015.1
20260507043028 36 280 1.7 2.6 0.00 0.00 0.00 76 1015.1
20260507042952 36 281 1.7 2.6 0.00 0.00 0.00 76 1015.1
20260507042808 36 281 1.7 2.6 0.00 0.00 0.00 76 1015.2
20260507042733 37 281 1.7 2.6 0.00 0.00 0.00 76 1015.1
20260507042637 37 280 1.7 2.6 0.00 0.00 0.00 75 1015.1
20260507042519 37 281 1.7 2.6 0.00 0.00 0.00 75 1015.1
20260507042425 37 282 1.7 2.6 0.00 0.00 0.00 75 1015.1
20260507042313 37 282 1.7 2.6 0.00 0.00 0.00 75 1015.1
20260507042217 37 282 1.7 2.6 0.00 0.00 0.00 75 1015.1
20260507042122 37 283 1.7 2.6 0.00 0.00 0.00 75 1015.1
20260507042027 37 284 1.7 2.6 0.00 0.00 0.00 75 1015.1
20260507041952 37 284 1.7 2.6 0.00 0.00 0.00 75 1015.1
20260507041808 37 294 1.7 2.6 0.00 0.00 0.00 75 1015.1
20260507041717 37 294 1.7 2.6 0.00 0.00 0.00 74 1015.1
20260507041620 37 296 1.7 1.7 0.00 0.00 0.00 74 1015.1
20260507041525 37 296 0.9 1.7 0.00 0.00 0.00 74 1015.1
20260507041447 37 296 0.9 1.7 0.00 0.00 0.00 75 1015.1
20260507041309 37 296 0.9 1.7 0.00 0.00 0.00 74 1015.1
20260507041214 37 296 0.9 1.7 0.00 0.00 0.00 74 1015.1
20260507041119 37 296 0.9 1.7 0.00 0.00 0.00 73 1015.2
20260507041007 37 296 0.9 1.7 0.00 0.00 0.00 73 1015.2
20260507040911 37 296 0.9 1.7 0.00 0.00 0.00 73 1015.1
20260507040813 37 296 0.9 1.7 0.00 0.00 0.00 73 1015.1
20260507040717 37 296 0.9 1.7 0.00 0.00 0.00 73 1015.2
20260507040641 38 296 0.9 1.7 0.00 0.00 0.00 73 1015.1
20260507040523 38 296 1.7 1.7 0.00 0.00 0.00 73 1015.1
20260507040412 38 296 1.7 1.7 0.00 0.00 0.00 73 1015.1
20260507040317 38 296 0.9 1.7 0.00 0.00 0.00 73 1015.2
20260507040220 38 296 0.9 1.7 0.00 0.00 0.00 73 1015.2
20260507040144 38 296 0.9 1.7 0.00 0.00 0.00 73 1015.2
20260507040007 38 296 0.9 1.7 0.00 0.00 0.00 73 1015.2
20260507035912 38 296 0.9 1.7 0.00 0.00 0.00 73 1015.2
20260507035816 38 296 0.0 1.7 0.00 0.00 0.00 73 1015.2
20260507035725 38 296 0.0 1.7 0.00 0.00 0.00 73 1015.2
20260507035629 38 296 0.0 1.7 0.00 0.00 0.00 73 1015.2
20260507035534 38 296 0.0 1.7 0.00 0.00 0.00 73 1015.2
20260507035416 38 296 0.0 1.7 0.00 0.00 0.00 71 1015.2
20260507035322 38 296 0.0 1.7 0.00 0.00 0.00 70 1015.2
20260507035245 38 296 0.0 1.7 0.00 0.00 0.00 70 1015.2
20260507035109 38 296 0.0 1.7 0.00 0.00 0.00 71 1015.2
20260507035018 38 296 0.9 1.7 0.00 0.00 0.00 71 1015.2
20260507034922 38 296 0.9 1.7 0.00 0.00 0.00 72 1015.2
20260507034807 38 296 0.9 1.7 0.00 0.00 0.00 73 1015.3
20260507034711 38 296 0.9 1.7 0.00 0.00 0.00 73 1015.3
20260507034616 38 296 0.9 1.7 0.00 0.00 0.00 73 1015.3
20260507034520 38 296 0.9 1.7 0.00 0.00 0.00 72 1015.3
20260507034429 38 296 0.9 1.7 0.00 0.00 0.00 72 1015.3
20260507034305 38 296 0.9 1.7 0.00 0.00 0.00 71 1015.3
20260507034210 38 296 0.9 0.9 0.00 0.00 0.00 71 1015.3
20260507034135 38 296 0.9 0.9 0.00 0.00 0.00 71 1015.2
20260507034020 38 296 0.9 0.9 0.00 0.00 0.00 71 1015.3
20260507033923 38 296 0.0 1.7 0.00 0.00 0.00 69 1015.3
20260507033812 38 296 0.0 1.7 0.00 0.00 0.00 69 1015.3
20260507033716 39 296 0.0 1.7 0.00 0.00 0.00 69 1015.2
20260507033620 39 296 0.9 1.7 0.00 0.00 0.00 69 1015.3
20260507033505 39 296 0.9 1.7 0.00 0.00 0.00 70 1015.2
20260507033430 39 296 0.9 1.7 0.00 0.00 0.00 70 1015.4
20260507033313 39 296 0.9 1.7 0.00 0.00 0.00 71 1015.3
20260507033238 39 296 0.9 1.7 0.00 0.00 0.00 71 1015.3
20260507033145 39 296 0.9 1.7 0.00 0.00 0.00 71 1015.3
20260507033009 39 296 0.9 1.7 0.00 0.00 0.00 70 1015.4
20260507032913 39 296 0.9 1.7 0.00 0.00 0.00 70 1015.3
20260507032837 39 296 1.7 1.7 0.00 0.00 0.00 69 1015.3
20260507032721 39 296 1.7 1.7 0.00 0.00 0.00 69 1015.3
20260507032605 39 296 1.7 1.7 0.00 0.00 0.00 68 1015.3
20260507032513 39 296 1.7 1.7 0.00 0.00 0.00 68 1015.3
20260507032418 39 296 1.7 1.7 0.00 0.00 0.00 67 1015.4
20260507032344 40 296 1.7 1.7 0.00 0.00 0.00 67 1015.3
20260507032227 40 296 1.7 1.7 0.00 0.00 0.00 66 1015.3
20260507032111 40 296 1.7 1.7 0.00 0.00 0.00 66 1015.3
20260507032015 40 296 1.7 1.7 0.00 0.00 0.00 66 1015.3
20260507031937 40 296 1.7 1.7 0.00 0.00 0.00 65 1015.2
20260507031805 40 296 0.9 1.7 0.00 0.00 0.00 65 1015.2
20260507031729 40 296 0.9 1.7 0.00 0.00 0.00 65 1015.2
20260507031606 41 296 0.0 0.0 0.00 0.00 0.00 65 1015.1
20260507031530 41 296 0.0 0.0 0.00 0.00 0.00 64 1015.2
20260507031414 41 296 0.0 0.0 0.00 0.00 0.00 62 1015.1
20260507031318 41 296 0.0 1.7 0.00 0.00 0.00 62 1015.1
20260507031220 41 296 0.0 1.7 0.00 0.00 0.00 62 1015.1
20260507031129 41 296 0.0 1.7 0.00 0.00 0.00 62 1015.2
20260507031005 41 296 0.0 1.7 0.00 0.00 0.00 62 1015.2
20260507030910 41 296 0.0 1.7 0.00 0.00 0.00 63 1015.2
20260507030814 41 296 0.0 1.7 0.00 0.00 0.00 63 1015.3
20260507030737 41 296 0.0 1.7 0.00 0.00 0.00 64 1015.3
20260507030620 41 296 0.0 1.7 0.00 0.00 0.00 65 1015.3
20260507030507 41 296 0.9 2.6 0.00 0.00 0.00 66 1015.4
20260507030430 41 296 0.9 2.6 0.00 0.00 0.00 66 1015.4
20260507030352 41 296 0.9 2.6 0.00 0.00 0.00 66 1015.4
20260507030207 41 296 0.9 2.6 0.00 0.00 0.00 66 1015.4
20260507030132 41 296 0.9 2.6 0.00 0.00 0.00 66 1015.4
20260507030034 41 296 0.9 2.6 0.00 0.00 0.00 66 1015.5
20260507025937 41 296 0.9 2.6 0.00 0.00 0.00 66 1015.4
20260507025840 41 296 1.7 2.6 0.00 0.00 0.00 66 1015.5
20260507025723 41 296 1.7 2.6 0.00 0.00 0.00 66 1015.5
20260507025611 41 296 1.7 2.6 0.00 0.00 0.00 66 1015.5
20260507025535 41 296 1.7 2.6 0.00 0.00 0.00 65 1015.5
20260507025417 41 297 1.7 2.6 0.00 0.00 0.00 65 1015.4
20260507025320 41 306 1.7 2.6 0.00 0.00 0.00 65 1015.5
20260507025224 41 306 1.7 2.6 0.00 0.00 0.00 65 1015.4
20260507025128 42 306 1.7 2.6 0.00 0.00 0.00 65 1015.5
20260507025011 42 306 1.7 2.6 0.00 0.00 0.00 64 1015.5
20260507024920 42 306 1.7 2.6 0.00 0.00 0.00 65 1015.5
20260507024824 42 306 1.7 2.6 0.00 0.00 0.00 63 1015.5
20260507024729 42 306 1.7 2.6 0.00 0.00 0.00 63 1015.4
20260507024630 42 306 1.7 2.6 0.00 0.00 0.00 64 1015.4
20260507024507 42 306 1.7 2.6 0.00 0.00 0.00 64 1015.4
20260507024412 42 306 1.7 2.6 0.00 0.00 0.00 63 1015.4
20260507024321 42 306 1.7 2.6 0.00 0.00 0.00 62 1015.4
20260507024224 42 306 0.9 2.6 0.00 0.00 0.00 61 1015.4
20260507024129 42 306 1.7 2.6 0.00 0.00 0.00 61 1015.4
20260507024005 42 306 1.7 3.5 0.00 0.00 0.00 60 1015.4
20260507023910 43 306 1.7 3.5 0.00 0.00 0.00 60 1015.3
20260507023813 43 306 1.7 3.5 0.00 0.00 0.00 59 1015.4
20260507023722 43 306 1.7 4.3 0.00 0.00 0.00 59 1015.4
20260507023627 43 306 1.7 4.3 0.00 0.00 0.00 59 1015.4
20260507023511 43 307 1.7 4.3 0.00 0.00 0.00 58 1015.4
20260507023416 43 316 1.7 4.3 0.00 0.00 0.00 57 1015.4
20260507023318 43 316 2.6 4.3 0.00 0.00 0.00 57 1015.4
20260507023223 43 315 1.7 4.3 0.00 0.00 0.00 57 1015.5
20260507023109 43 355 2.6 4.3 0.00 0.00 0.00 57 1015.5
20260507023015 43 355 3.5 4.3 0.00 0.00 0.00 57 1015.4
20260507022939 43 355 2.6 4.3 0.00 0.00 0.00 57 1015.4
20260507022823 43 350 1.7 4.3 0.00 0.00 0.00 57 1015.4
20260507022707 43 348 1.7 4.3 0.00 0.00 0.00 57 1015.5
20260507022631 43 355 1.7 4.3 0.00 0.00 0.00 57 1015.5
20260507022508 43 325 1.7 5.2 0.00 0.00 0.00 56 1015.5
20260507022416 43 347 1.7 5.2 0.00 0.00 0.00 56 1015.4
20260507022318 43 338 1.7 7.0 0.00 0.00 0.00 57 1015.4
20260507022222 43 329 2.6 7.0 0.00 0.00 0.00 57 1015.4
20260507022128 43 312 3.5 7.0 0.00 0.00 0.00 56 1015.5
20260507022010 43 312 3.5 7.0 0.00 0.00 0.00 57 1015.5
20260507021914 43 309 3.5 7.0 0.00 0.00 0.00 57 1015.5
20260507021818 43 339 3.5 7.0 0.00 0.00 0.00 56 1015.5
20260507021707 43 324 3.5 7.0 0.00 0.00 0.00 56 1015.5
20260507021631 43 331 3.5 7.0 0.00 0.00 0.00 56 1015.4
20260507021508 43 288 3.5 7.0 0.00 0.00 0.00 57 1015.5
20260507021434 43 300 2.6 5.2 0.00 0.00 0.00 57 1015.5
20260507021316 43 323 1.7 5.2 0.00 0.00 0.00 57 1015.6
20260507021239 43 329 2.6 5.2 0.00 0.00 0.00 57 1015.5
20260507021106 43 302 3.5 5.2 0.00 0.00 0.00 57 1015.5
20260507021030 43 338 2.6 5.2 0.00 0.00 0.00 57 1015.5
20260507020908 43 319 1.7 5.2 0.00 0.00 0.00 57 1015.5
20260507020832 43 305 2.6 5.2 0.00 0.00 0.00 57 1015.5
20260507020734 43 317 1.7 5.2 0.00 0.00 0.00 57 1015.4
20260507020618 43 313 1.7 5.2 0.00 0.00 0.00 58 1015.5
20260507020519 43 311 1.7 5.2 0.00 0.00 0.00 57 1015.6
20260507020408 43 294 2.6 5.2 0.00 0.00 0.00 57 1015.5
20260507020332 43 355 3.5 5.2 0.00 0.00 0.00 56 1015.5
20260507020208 43 297 2.6 7.0 0.00 0.00 0.00 57 1015.5
20260507020113 43 299 1.7 7.0 0.00 0.00 0.00 57 1015.5
20260507020018 43 299 2.6 7.0 0.00 0.00 0.00 57 1015.5
20260507015921 43 298 2.6 7.8 0.00 0.00 0.00 56 1015.4
20260507015810 43 300 2.6 7.8 0.00 0.00 0.00 56 1015.4
20260507015715 43 317 2.6 10.4 0.00 0.00 0.00 56 1015.4
20260507015619 43 302 3.5 10.4 0.00 0.00 0.00 55 1015.3
20260507015544 44 293 4.3 10.4 0.00 0.00 0.00 55 1015.4
20260507015426 43 296 4.3 10.4 0.00 0.00 0.00 56 1015.4
20260507015350 44 319 4.3 10.4 0.00 0.00 0.00 56 1015.4
20260507015252 43 309 4.3 10.4 0.00 0.00 0.00 56 1015.4
20260507015108 43 300 5.2 10.4 0.00 0.00 0.00 55 1015.4
20260507015016 44 298 6.1 10.4 0.00 0.00 0.00 56 1015.3
20260507014921 44 309 6.1 10.4 0.00 0.00 0.00 55 1015.4
20260507014805 44 302 4.3 9.6 0.00 0.00 0.00 56 1015.4
20260507014710 44 308 3.5 9.6 0.00 0.00 0.00 55 1015.4
20260507014613 44 319 4.3 9.6 0.00 0.00 0.00 55 1015.3
20260507014518 44 322 4.3 9.6 0.00 0.00 0.00 55 1015.3
20260507014406 44 290 4.3 9.6 0.00 0.00 0.00 55 1015.3
20260507014330 44 305 4.3 9.6 0.00 0.00 0.00 55 1015.3
20260507014208 44 350 4.3 9.6 0.00 0.00 0.00 56 1015.3
20260507014110 44 307 5.2 9.6 0.00 0.00 0.00 56 1015.4
20260507014015 44 293 5.2 9.6 0.00 0.00 0.00 55 1015.4
20260507013919 44 297 4.3 9.6 0.00 0.00 0.00 56 1015.4
20260507013806 44 329 4.3 9.6 0.00 0.00 0.00 54 1015.3
20260507013730 44 355 4.3 9.6 0.00 0.00 0.00 54 1015.3
20260507013608 44 321 4.3 9.6 0.00 0.00 0.00 55 1015.4
20260507013531 44 290 5.2 9.6 0.00 0.00 0.00 55 1015.3
20260507013433 44 318 5.2 9.6 0.00 0.00 0.00 54 1015.4
20260507013337 44 348 4.3 7.8 0.00 0.00 0.00 54 1015.3
20260507013240 44 306 4.3 7.8 0.00 0.00 0.00 55 1015.4
20260507013143 44 320 4.3 7.8 0.00 0.00 0.00 55 1015.3
20260507013011 44 298 3.5 7.8 0.00 0.00 0.00 54 1015.3
20260507012915 44 309 2.6 7.8 0.00 0.00 0.00 55 1015.3
20260507012840 44 360 3.5 7.8 0.00 0.00 0.00 54 1015.3
20260507012721 44 313 3.5 7.8 0.00 0.00 0.00 54 1015.3
20260507012626 44 319 3.5 9.6 0.00 0.00 0.00 55 1015.3
20260507012509 44 333 2.6 9.6 0.00 0.00 0.00 55 1015.3
20260507012414 44 318 2.6 9.6 0.00 0.00 0.00 55 1015.4
20260507012316 44 325 4.3 9.6 0.00 0.00 0.00 54 1015.3
20260507012241 44 303 5.2 9.6 0.00 0.00 0.00 54 1015.4
20260507012105 44 304 5.2 9.6 0.00 0.00 0.00 54 1015.3
20260507012029 44 306 5.2 9.6 0.00 0.00 0.00 54 1015.4
20260507011906 44 294 4.3 9.6 0.00 0.00 0.00 54 1015.3
20260507011810 44 312 2.6 7.8 0.00 0.00 0.00 54 1015.3
20260507011715 44 335 3.5 7.8 0.00 0.00 0.00 54 1015.4
20260507011624 44 336 3.5 7.8 0.00 0.00 0.00 54 1015.3
20260507011549 44 336 3.5 7.8 0.00 0.00 0.00 54 1015.3
20260507011452 44 306 3.5 7.8 0.00 0.00 0.00 54 1015.3
20260507011308 44 321 4.3 7.8 0.00 0.00 0.00 54 1015.4
20260507011213 44 325 4.3 7.8 0.00 0.00 0.00 53 1015.5
20260507011134 44 321 4.3 7.8 0.00 0.00 0.00 53 1015.3
20260507011008 44 306 3.5 5.2 0.00 0.00 0.00 54 1015.3
20260507010917 44 319 2.6 5.2 0.00 0.00 0.00 54 1015.4
20260507010822 44 350 3.5 5.2 0.00 0.00 0.00 54 1015.4
20260507010727 44 317 3.5 5.2 0.00 0.00 0.00 54 1015.3
20260507010610 44 308 3.5 5.2 0.00 0.00 0.00 54 1015.3
20260507010515 44 319 3.5 5.2 0.00 0.00 0.00 53 1015.4
20260507010437 44 293 2.6 5.2 0.00 0.00 0.00 54 1015.4
20260507010321 44 305 2.6 5.2 0.00 0.00 0.00 54 1015.4
20260507010208 44 321 3.5 5.2 0.00 0.00 0.00 54 1015.3
20260507010113 44 292 2.6 5.2 0.00 0.00 0.00 54 1015.4
20260507010017 44 329 2.6 5.2 0.00 0.00 0.00 54 1015.3
20260507005920 44 344 2.6 5.2 0.00 0.00 0.00 55 1015.4
20260507005824 44 348 2.6 7.0 0.00 0.00 0.00 54 1015.4
20260507005728 44 318 2.6 7.0 0.00 0.00 0.00 54 1015.4
20260507005616 44 311 1.7 7.0 0.00 0.00 0.00 54 1015.4
20260507005520 44 295 1.7 7.0 0.00 0.00 0.00 55 1015.4
20260507005424 44 355 1.7 7.0 0.00 0.00 0.00 54 1015.4
20260507005328 44 321 3.5 7.0 0.00 0.00 0.00 53 1015.4
20260507005211 44 307 3.5 7.0 0.00 0.00 0.00 54 1015.5
20260507005135 44 360 3.5 7.0 0.00 0.00 0.00 54 1015.4
20260507005037 44 312 3.5 7.0 0.00 0.00 0.00 54 1015.5
20260507004920 44 315 2.6 7.0 0.00 0.00 0.00 53 1015.4
20260507004828 44 313 3.5 7.0 0.00 0.00 0.00 53 1015.4
20260507004705 44 355 3.5 7.0 0.00 0.00 0.00 54 1015.4
20260507004608 44 343 2.6 8.7 0.00 0.00 0.00 53 1015.4
20260507004512 44 329 3.5 8.7 0.00 0.00 0.00 53 1015.4
20260507004416 44 351 3.5 8.7 0.00 0.00 0.00 53 1015.4
20260507004305 44 335 4.3 9.6 0.00 0.00 0.00 53 1015.4
20260507004229 44 350 4.3 9.6 0.00 0.00 0.00 54 1015.4
20260507004106 44 334 3.5 9.6 0.00 0.00 0.00 53 1015.3
20260507004030 44 339 4.3 9.6 0.00 0.00 0.00 53 1015.4
20260507003913 44 338 6.1 9.6 0.00 0.00 0.00 54 1015.4
20260507003816 44 349 5.2 9.6 0.00 0.00 0.00 53 1015.4
20260507003720 44 327 4.3 9.6 0.00 0.00 0.00 54 1015.4
20260507003628 44 5 6.1 9.6 0.00 0.00 0.00 53 1015.4
20260507003511 44 316 5.2 9.6 0.00 0.00 0.00 53 1015.4
20260507003415 44 342 4.3 9.6 0.00 0.00 0.00 52 1015.5
20260507003316 44 336 4.3 9.6 0.00 0.00 0.00 52 1015.5
20260507003237 44 350 4.3 9.6 0.00 0.00 0.00 53 1015.4
20260507003140 44 334 5.2 9.6 0.00 0.00 0.00 53 1015.4
20260507003023 44 316 6.1 9.6 0.00 0.00 0.00 53 1015.4
20260507002910 44 339 5.2 9.6 0.00 0.00 0.00 52 1015.5
20260507002812 44 330 5.2 9.6 0.00 0.00 0.00 52 1015.5
20260507002713 44 349 7.0 9.6 0.00 0.00 0.00 52 1015.5
20260507002614 44 355 6.1 9.6 0.00 0.00 0.00 52 1015.6
20260507002514 44 355 5.2 8.7 0.00 0.00 0.00 53 1015.5
20260507002418 44 355 5.2 7.8 0.00 0.00 0.00 52 1015.5
20260507002319 44 309 5.2 8.7 0.00 0.00 0.00 52 1015.6
20260507002224 44 346 4.3 8.7 0.00 0.00 0.00 53 1015.6
20260507002109 44 330 4.3 8.7 0.00 0.00 0.00 52 1015.5
20260507002009 44 336 4.3 8.7 0.00 0.00 0.00 52 1015.6
20260507001910 44 355 4.3 9.6 0.00 0.00 0.00 53 1015.6
20260507001813 44 343 4.3 9.6 0.00 0.00 0.00 53 1015.6
20260507001716 44 360 3.5 9.6 0.00 0.00 0.00 53 1015.7
20260507001624 44 333 5.2 9.6 0.00 0.00 0.00 53 1015.6
20260507001528 44 355 6.1 9.6 0.00 0.00 0.00 53 1015.7
20260507001406 45 319 4.3 9.6 0.00 0.00 0.00 53 1015.7
20260507001331 44 355 4.3 9.6 0.00 0.00 0.00 53 1015.6
20260507001207 44 302 6.1 9.6 0.00 0.00 0.00 53 1015.7
20260507001111 45 355 5.2 9.6 0.00 0.00 0.00 54 1015.8
20260507001039 44 346 3.5 7.8 0.00 0.00 0.00 54 1015.7
20260507000922 44 13 2.6 7.8 0.00 0.00 0.00 54 1015.8
20260507000807 44 309 3.5 7.8 0.00 0.00 0.00 55 1015.8
20260507000730 44 5 3.5 7.8 0.00 0.00 0.00 54 1015.8
20260507000606 44 345 3.5 7.8 0.00 0.00 0.00 54 1015.8
20260507000509 44 5 2.6 7.8 0.00 0.00 0.00 54 1015.7
20260507000413 44 306 2.6 7.8 0.00 0.00 0.00 54 1015.8
20260507000320 44 329 3.5 7.8 0.00 0.00 0.00 55 1015.8
20260507000221 44 325 3.5 7.8 0.00 0.00 0.00 53 1015.8
20260507000123 44 296 4.3 7.8 0.00 0.00 0.00 53 1015.7
20260507000026 44 344 2.6 7.8 0.00 0.00 0.00 54 1015.7
20260506235930 44 351 2.6 7.0 0.00 0.00 0.00 54 1015.8
20260506235812 44 360 2.6 7.8 0.00 0.00 0.00 53 1015.7
20260506235735 44 336 2.6 7.8 0.00 0.00 0.00 53 1015.8
20260506235620 44 341 3.5 7.8 0.00 0.00 0.00 53 1015.8
20260506235543 44 5 2.6 7.8 0.00 0.00 0.00 53 1015.8
20260506235406 44 322 2.6 7.8 0.00 0.00 0.00 54 1015.7
20260506235308 44 15 3.5 7.8 0.00 0.00 0.00 54 1015.8
20260506235211 44 15 4.3 8.7 0.00 0.00 0.00 53 1015.8
20260506235134 44 309 5.2 8.7 0.00 0.00 0.00 53 1015.8
20260506235016 44 348 5.2 8.7 0.00 0.00 0.00 53 1015.8
20260506234940 44 313 5.2 8.7 0.00 0.00 0.00 53 1015.8
20260506234808 44 328 4.3 8.7 0.00 0.00 0.00 53 1015.8
20260506234731 44 333 3.5 8.7 0.00 0.00 0.00 53 1015.7
20260506234607 44 320 3.5 8.7 0.00 0.00 0.00 54 1015.8
20260506234509 44 344 5.2 8.7 0.00 0.00 0.00 53 1015.7
20260506234434 44 348 5.2 8.7 0.00 0.00 0.00 53 1015.7
20260506234315 44 351 5.2 8.7 0.00 0.00 0.00 53 1015.8
20260506234223 44 12 5.2 9.6 0.00 0.00 0.00 53 1015.7
20260506234127 44 355 4.3 9.6 0.00 0.00 0.00 53 1015.7
20260506234009 44 14 3.5 9.6 0.00 0.00 0.00 53 1015.8
20260506233912 45 325 4.3 9.6 0.00 0.00 0.00 53 1015.9
20260506233816 45 313 5.2 9.6 0.00 0.00 0.00 53 1015.8
20260506233718 45 346 5.2 9.6 0.00 0.00 0.00 52 1015.8
20260506233605 45 5 6.1 11.3 0.00 0.00 0.00 53 1015.9
20260506233508 45 9 6.1 11.3 0.00 0.00 0.00 52 1015.9
20260506233431 45 294 6.1 11.3 0.00 0.00 0.00 52 1015.9
20260506233308 45 360 5.2 11.3 0.00 0.00 0.00 53 1015.8
20260506233210 45 342 5.2 11.3 0.00 0.00 0.00 53 1015.9
20260506233134 45 328 5.2 11.3 0.00 0.00 0.00 53 1015.9
20260506233037 45 333 4.3 11.3 0.00 0.00 0.00 53 1015.9
20260506232919 45 5 5.2 11.3 0.00 0.00 0.00 54 1016.0
20260506232805 45 313 7.8 11.3 0.00 0.00 0.00 52 1015.9
20260506232728 45 312 7.8 11.3 0.00 0.00 0.00 52 1015.9
20260506232652 45 347 6.1 11.3 0.00 0.00 0.00 53 1015.9
20260506232507 45 360 4.3 8.7 0.00 0.00 0.00 52 1015.8
20260506232432 45 5 5.2 8.7 0.00 0.00 0.00 53 1015.8
20260506232313 45 345 6.1 8.7 0.00 0.00 0.00 53 1015.9
20260506232217 45 322 4.3 10.4 0.00 0.00 0.00 53 1015.9
20260506232124 45 360 2.6 10.4 0.00 0.00 0.00 53 1015.9
20260506232049 45 11 3.5 11.3 0.00 0.00 0.00 52 1015.9
20260506231906 45 340 4.3 11.3 0.00 0.00 0.00 53 1015.9
20260506231829 45 349 4.3 11.3 0.00 0.00 0.00 52 1015.8
20260506231711 45 312 5.2 11.3 0.00 0.00 0.00 52 1015.9
20260506231615 45 329 6.1 11.3 0.00 0.00 0.00 52 1015.9
20260506231519 45 341 7.0 11.3 0.00 0.00 0.00 52 1015.8
20260506231408 45 341 7.8 11.3 0.00 0.00 0.00 52 1015.9
20260506231311 45 334 7.8 11.3 0.00 0.00 0.00 52 1015.8
20260506231215 45 348 7.0 11.3 0.00 0.00 0.00 52 1015.8
20260506231120 45 331 7.0 11.3 0.00 0.00 0.00 52 1015.8
20260506231005 45 273 6.1 11.3 0.00 0.00 0.00 52 1015.8
20260506230914 45 327 4.3 10.4 0.00 0.00 0.00 53 1015.9
20260506230818 45 355 3.5 10.4 0.00 0.00 0.00 53 1015.8
20260506230722 45 341 5.2 10.4 0.00 0.00 0.00 53 1015.9
20260506230626 45 333 5.2 10.4 0.00 0.00 0.00 52 1015.9
20260506230549 45 340 7.0 10.4 0.00 0.00 0.00 52 1015.8
20260506230406 45 328 7.8 12.2 0.00 0.00 0.00 52 1015.8
20260506230330 45 329 7.0 12.2 0.00 0.00 0.00 52 1015.8
20260506230234 45 345 5.2 13.0 0.00 0.00 0.00 53 1015.8
20260506230120 45 341 4.3 13.0 0.00 0.00 0.00 54 1015.9
20260506230005 45 317 4.3 13.0 0.00 0.00 0.00 53 1015.8
20260506225929 45 325 5.2 13.0 0.00 0.00 0.00 53 1015.9
20260506225805 45 327 6.1 13.0 0.00 0.00 0.00 53 1015.8
20260506225709 45 12 6.1 13.0 0.00 0.00 0.00 53 1015.8
20260506225614 45 5 8.7 13.0 0.00 0.00 0.00 53 1015.8
20260506225541 45 322 8.7 13.0 0.00 0.00 0.00 53 1015.8
20260506225405 45 327 7.0 13.0 0.00 0.00 0.00 53 1015.8
20260506225310 45 304 6.1 11.3 0.00 0.00 0.00 53 1015.9
20260506225214 45 346 7.0 11.3 0.00 0.00 0.00 52 1015.9
20260506225117 45 5 6.1 11.3 0.00 0.00 0.00 53 1015.9
20260506225042 45 5 6.1 11.3 0.00 0.00 0.00 53 1015.9
20260506224908 45 311 7.8 11.3 0.00 0.00 0.00 52 1015.9
20260506224831 45 315 7.0 11.3 0.00 0.00 0.00 53 1015.9
20260506224735 45 329 5.2 11.3 0.00 0.00 0.00 52 1015.9
20260506224616 45 308 6.1 11.3 0.00 0.00 0.00 53 1015.9
20260506224521 45 345 7.0 11.3 0.00 0.00 0.00 52 1016.0
20260506224445 45 345 7.0 11.3 0.00 0.00 0.00 52 1016.0
20260506224309 45 347 5.2 11.3 0.00 0.00 0.00 53 1016.0
20260506224214 45 355 4.3 9.6 0.00 0.00 0.00 53 1015.9
20260506224122 45 5 4.3 9.6 0.00 0.00 0.00 53 1016.0
20260506224027 45 350 3.5 12.2 0.00 0.00 0.00 54 1016.1
20260506223908 45 334 4.3 12.2 0.00 0.00 0.00 54 1016.0
20260506223813 45 308 4.3 12.2 0.00 0.00 0.00 53 1016.0
20260506223717 45 355 4.3 12.2 0.00 0.00 0.00 53 1016.0
20260506223622 45 308 5.2 12.2 0.00 0.00 0.00 52 1016.1
20260506223526 45 360 7.0 12.2 0.00 0.00 0.00 52 1016.0
20260506223412 45 355 6.1 12.2 0.00 0.00 0.00 53 1016.1
20260506223317 45 5 6.1 12.2 0.00 0.00 0.00 53 1016.0
20260506223220 45 337 7.0 12.2 0.00 0.00 0.00 53 1016.0
20260506223125 45 316 7.0 11.3 0.00 0.00 0.00 53 1016.0
20260506223028 45 341 6.1 11.3 0.00 0.00 0.00 54 1016.0
20260506222906 45 329 2.6 10.4 0.00 0.00 0.00 54 1016.1
20260506222815 45 341 2.6 10.4 0.00 0.00 0.00 54 1016.0
20260506222720 45 355 2.6 10.4 0.00 0.00 0.00 54 1016.1
20260506222624 45 5 3.5 10.4 0.00 0.00 0.00 54 1016.1
20260506222508 45 34 6.1 10.4 0.00 0.00 0.00 53 1016.1
20260506222413 45 5 7.0 10.4 0.00 0.00 0.00 53 1016.2
20260506222316 45 328 7.0 10.4 0.00 0.00 0.00 54 1016.1
20260506222225 45 12 7.0 10.4 0.00 0.00 0.00 54 1016.2
20260506222108 45 303 6.1 10.4 0.00 0.00 0.00 53 1016.0
20260506222012 45 338 5.2 11.3 0.00 0.00 0.00 54 1016.1
20260506221917 45 296 6.1 11.3 0.00 0.00 0.00 54 1016.1
20260506221840 45 320 7.0 13.0 0.00 0.00 0.00 53 1016.1
20260506221724 45 360 5.2 13.0 0.00 0.00 0.00 54 1016.1
20260506221612 45 23 5.2 13.0 0.00 0.00 0.00 55 1016.2
20260506221517 45 342 5.2 13.0 0.00 0.00 0.00 54 1016.2
20260506221420 45 360 5.2 13.0 0.00 0.00 0.00 53 1016.1
20260506221324 44 5 6.1 13.0 0.00 0.00 0.00 53 1016.1
20260506221209 44 360 7.0 13.0 0.00 0.00 0.00 55 1016.1
20260506221133 44 329 8.7 13.0 0.00 0.00 0.00 53 1016.3
20260506221017 45 304 8.7 13.0 0.00 0.00 0.00 53 1016.2
20260506220905 45 339 7.0 13.0 0.00 0.00 0.00 54 1016.1
20260506220809 45 302 7.0 13.0 0.00 0.00 0.00 53 1016.2
20260506220732 45 317 7.8 13.0 0.00 0.00 0.00 53 1016.2
20260506220608 45 315 7.8 13.0 0.00 0.00 0.00 54 1016.2
20260506220513 45 321 5.2 9.6 0.00 0.00 0.00 55 1016.2
20260506220418 45 320 3.5 9.6 0.00 0.00 0.00 54 1016.2
20260506220306 45 296 4.3 9.6 0.00 0.00 0.00 53 1016.2
20260506220210 45 360 4.3 9.6 0.00 0.00 0.00 54 1016.2
20260506220112 45 306 3.5 9.6 0.00 0.00 0.00 56 1016.2
20260506220016 45 32 5.2 9.6 0.00 0.00 0.00 54 1016.2
20260506215940 45 15 7.0 9.6 0.00 0.00 0.00 54 1016.2
20260506215824 44 344 5.2 9.6 0.00 0.00 0.00 55 1016.3
20260506215711 44 26 3.5 8.7 0.00 0.00 0.00 56 1016.2
20260506215617 44 355 4.3 8.7 0.00 0.00 0.00 54 1016.3
20260506215521 44 348 4.3 8.7 0.00 0.00 0.00 54 1016.2
20260506215427 44 13 4.3 8.7 0.00 0.00 0.00 53 1016.3
20260506215351 44 5 6.1 8.7 0.00 0.00 0.00 54 1016.2
20260506215206 44 355 5.2 8.7 0.00 0.00 0.00 54 1016.2
20260506215114 44 349 4.3 8.7 0.00 0.00 0.00 55 1016.3
20260506215018 44 286 5.2 8.7 0.00 0.00 0.00 54 1016.3
20260506214922 44 25 4.3 9.6 0.00 0.00 0.00 55 1016.3
20260506214807 44 342 3.5 11.3 0.00 0.00 0.00 55 1016.2
20260506214732 44 315 3.5 11.3 0.00 0.00 0.00 55 1016.3
20260506214607 44 328 4.3 11.3 0.00 0.00 0.00 55 1016.2
20260506214515 44 287 5.2 11.3 0.00 0.00 0.00 55 1016.2
20260506214419 44 318 5.2 11.3 0.00 0.00 0.00 53 1016.2
20260506214323 44 360 6.1 11.3 0.00 0.00 0.00 54 1016.3
20260506214228 44 317 6.1 11.3 0.00 0.00 0.00 55 1016.3
20260506214130 44 306 6.1 11.3 0.00 0.00 0.00 54 1016.3
20260506214007 44 336 7.0 11.3 0.00 0.00 0.00 55 1016.3
20260506213932 44 340 7.8 11.3 0.00 0.00 0.00 54 1016.3
20260506213820 44 321 7.8 11.3 0.00 0.00 0.00 55 1016.2
20260506213705 44 355 7.8 11.3 0.00 0.00 0.00 54 1016.3
20260506213609 44 17 6.1 11.3 0.00 0.00 0.00 54 1016.4
20260506213533 44 349 2.6 11.3 0.00 0.00 0.00 55 1016.3
20260506213413 44 281 3.5 11.3 0.00 0.00 0.00 55 1016.3
20260506213318 44 346 7.0 11.3 0.00 0.00 0.00 54 1016.3
20260506213206 44 327 7.8 11.3 0.00 0.00 0.00 54 1016.3
20260506213129 44 290 6.1 10.4 0.00 0.00 0.00 55 1016.3
20260506213005 44 308 4.3 10.4 0.00 0.00 0.00 55 1016.3
20260506212930 44 279 4.3 11.3 0.00 0.00 0.00 55 1016.3
20260506212807 44 325 4.3 11.3 0.00 0.00 0.00 56 1016.3
20260506212711 44 304 4.3 11.3 0.00 0.00 0.00 56 1016.4
20260506212616 44 283 4.3 11.3 0.00 0.00 0.00 57 1016.4
20260506212524 44 355 3.5 11.3 0.00 0.00 0.00 57 1016.4
20260506212427 44 292 4.3 11.3 0.00 0.00 0.00 56 1016.4
20260506212351 44 323 4.3 11.3 0.00 0.00 0.00 56 1016.4
20260506212206 44 355 7.0 11.3 0.00 0.00 0.00 57 1016.4
20260506212110 44 292 7.8 11.3 0.00 0.00 0.00 55 1016.4
20260506212034 44 284 7.0 11.3 0.00 0.00 0.00 55 1016.3
20260506211917 44 325 6.1 11.3 0.00 0.00 0.00 57 1016.4
20260506211824 44 306 7.0 11.3 0.00 0.00 0.00 55 1016.4
20260506211728 44 315 7.0 11.3 0.00 0.00 0.00 55 1016.4
20260506211606 44 297 7.0 11.3 0.00 0.00 0.00 53 1016.4
20260506211528 44 306 7.0 11.3 0.00 0.00 0.00 53 1016.4
20260506211451 44 317 7.8 11.3 0.00 0.00 0.00 54 1016.4
20260506211307 44 342 7.8 11.3 0.00 0.00 0.00 55 1016.5
20260506211211 44 342 7.0 10.4 0.00 0.00 0.00 54 1016.4
20260506211139 44 342 7.0 10.4 0.00 0.00 0.00 54 1016.5
20260506211021 44 328 5.2 10.4 0.00 0.00 0.00 55 1016.4
20260506210926 44 299 4.3 10.4 0.00 0.00 0.00 57 1016.4
20260506210809 44 309 7.0 10.4 0.00 0.00 0.00 54 1016.4
20260506210713 44 314 7.8 10.4 0.00 0.00 0.00 55 1016.5
20260506210617 44 317 7.8 10.4 0.00 0.00 0.00 55 1016.4
20260506210505 44 300 7.0 12.2 0.00 0.00 0.00 56 1016.5
20260506210429 44 301 6.1 12.2 0.00 0.00 0.00 57 1016.4
20260506210306 44 286 5.2 12.2 0.00 0.00 0.00 56 1016.6
20260506210211 44 307 4.3 12.2 0.00 0.00 0.00 56 1016.6
20260506210114 44 333 6.1 12.2 0.00 0.00 0.00 57 1016.6
20260506210019 44 327 7.8 13.0 0.00 0.00 0.00 56 1016.6
20260506205923 44 294 7.0 13.0 0.00 0.00 0.00 55 1016.6
20260506205828 44 300 7.0 13.0 0.00 0.00 0.00 56 1016.6
20260506205705 44 287 8.7 13.0 0.00 0.00 0.00 55 1016.6
20260506205628 44 297 9.6 13.0 0.00 0.00 0.00 56 1016.7
20260506205505 44 313 7.0 13.0 0.00 0.00 0.00 56 1016.6
20260506205408 44 294 5.2 13.0 0.00 0.00 0.00 55 1016.6
20260506205311 44 332 6.1 13.0 0.00 0.00 0.00 55 1016.7
20260506205219 44 336 7.0 13.0 0.00 0.00 0.00 54 1016.7
20260506205122 44 321 5.2 12.2 0.00 0.00 0.00 54 1016.6
20260506205026 44 308 5.2 14.8 0.00 0.00 0.00 55 1016.7
20260506204908 44 299 6.1 14.8 0.00 0.00 0.00 54 1016.7
20260506204812 44 296 7.8 14.8 0.00 0.00 0.00 54 1016.7
20260506204736 44 355 7.0 14.8 0.00 0.00 0.00 54 1016.7
20260506204619 44 320 5.2 14.8 0.00 0.00 0.00 55 1016.6
20260506204528 44 300 6.1 14.8 0.00 0.00 0.00 55 1016.7
20260506204405 44 340 8.7 14.8 0.00 0.00 0.00 54 1016.7
20260506204309 44 360 9.6 14.8 0.00 0.00 0.00 54 1016.8
20260506204232 44 336 8.7 14.8 0.00 0.00 0.00 55 1016.7
20260506204134 44 339 7.8 13.0 0.00 0.00 0.00 57 1016.8
20260506204016 44 308 7.8 13.0 0.00 0.00 0.00 58 1016.8
20260506203919 44 301 7.8 15.6 0.00 0.00 0.00 57 1016.7
20260506203827 44 301 6.1 15.6 0.00 0.00 0.00 56 1016.8
20260506203711 44 346 3.5 15.6 0.00 0.00 0.00 57 1016.7
20260506203612 44 327 3.5 15.6 0.00 0.00 0.00 56 1016.6
20260506203516 44 355 5.2 15.6 0.00 0.00 0.00 56 1016.7
20260506203418 44 355 7.0 15.6 0.00 0.00 0.00 54 1016.7
20260506203322 44 315 8.7 15.6 0.00 0.00 0.00 54 1016.7
20260506203209 44 299 9.6 15.6 0.00 0.00 0.00 53 1016.7
20260506203132 44 302 9.6 15.6 0.00 0.00 0.00 54 1016.7
20260506203007 44 317 7.8 13.9 0.00 0.00 0.00 55 1016.7
20260506202930 44 326 7.0 13.9 0.00 0.00 0.00 56 1016.7
20260506202812 44 331 6.1 12.2 0.00 0.00 0.00 56 1016.7
20260506202714 44 338 7.0 12.2 0.00 0.00 0.00 55 1016.7
20260506202637 44 343 7.0 12.2 0.00 0.00 0.00 55 1016.7
20260506202520 44 5 6.1 12.2 0.00 0.00 0.00 56 1016.7
20260506202407 44 11 5.2 12.2 0.00 0.00 0.00 56 1016.7
20260506202330 44 355 5.2 12.2 0.00 0.00 0.00 56 1016.6
20260506202213 44 305 5.2 12.2 0.00 0.00 0.00 56 1016.6
20260506202115 44 299 6.1 12.2 0.00 0.00 0.00 55 1016.6
20260506202018 44 43 7.0 12.2 0.00 0.00 0.00 54 1016.7
20260506201942 44 313 5.2 10.4 0.00 0.00 0.00 54 1016.7
20260506201808 44 355 6.1 13.0 0.00 0.00 0.00 54 1016.7
20260506201731 44 333 7.8 13.0 0.00 0.00 0.00 55 1016.7
20260506201607 44 13 8.7 13.0 0.00 0.00 0.00 54 1016.7
20260506201510 44 344 7.0 13.0 0.00 0.00 0.00 54 1016.7
20260506201413 44 309 6.1 13.0 0.00 0.00 0.00 54 1016.6
20260506201316 44 336 6.1 13.0 0.00 0.00 0.00 55 1016.6
20260506201220 44 345 7.0 13.0 0.00 0.00 0.00 53 1016.7
20260506201106 44 10 7.8 13.0 0.00 0.00 0.00 53 1016.7
20260506201009 44 342 7.0 13.0 0.00 0.00 0.00 55 1016.7
20260506200912 44 5 6.1 10.4 0.00 0.00 0.00 55 1016.6
20260506200815 44 40 6.1 10.4 0.00 0.00 0.00 54 1016.7
20260506200716 44 347 6.1 10.4 0.00 0.00 0.00 55 1016.7
20260506200619 44 5 6.1 10.4 0.00 0.00 0.00 55 1016.6
20260506200507 44 323 7.8 10.4 0.00 0.00 0.00 56 1016.7
20260506200409 44 335 7.0 10.4 0.00 0.00 0.00 55 1016.7
20260506200313 44 36 6.1 9.6 0.00 0.00 0.00 55 1016.7
20260506200236 44 360 6.1 9.6 0.00 0.00 0.00 56 1016.7
20260506200118 44 360 5.2 9.6 0.00 0.00 0.00 56 1016.7
20260506200021 44 30 4.3 12.2 0.00 0.00 0.00 58 1016.7
20260506195908 44 26 6.1 12.2 0.00 0.00 0.00 55 1016.7
20260506195831 44 326 5.2 12.2 0.00 0.00 0.00 55 1016.7
20260506195707 44 334 2.6 12.2 0.00 0.00 0.00 58 1016.6
20260506195609 44 350 2.6 12.2 0.00 0.00 0.00 57 1016.7
20260506195512 44 314 3.5 12.2 0.00 0.00 0.00 57 1016.7
20260506195417 44 306 6.1 12.2 0.00 0.00 0.00 56 1016.7
20260506195320 44 322 7.8 12.2 0.00 0.00 0.00 54 1016.7
20260506195208 44 305 7.0 12.2 0.00 0.00 0.00 57 1016.7
20260506195132 44 315 5.2 9.6 0.00 0.00 0.00 55 1016.7
20260506195014 44 302 4.3 9.6 0.00 0.00 0.00 56 1016.7
20260506194916 44 300 6.1 9.6 0.00 0.00 0.00 56 1016.7
20260506194820 44 288 7.0 9.6 0.00 0.00 0.00 55 1016.7
20260506194722 44 355 6.1 9.6 0.00 0.00 0.00 55 1016.8
20260506194629 44 355 4.3 12.2 0.00 0.00 0.00 56 1016.7
20260506194504 44 334 5.2 12.2 0.00 0.00 0.00 58 1016.8
20260506194407 44 22 4.3 12.2 0.00 0.00 0.00 56 1016.8
20260506194332 44 304 5.2 12.2 0.00 0.00 0.00 57 1016.8
20260506194234 43 315 4.3 12.2 0.00 0.00 0.00 56 1016.7
20260506194136 43 340 3.5 12.2 0.00 0.00 0.00 56 1016.8
20260506194018 43 38 5.2 12.2 0.00 0.00 0.00 56 1016.7
20260506193941 43 36 6.1 12.2 0.00 0.00 0.00 55 1016.8
20260506193807 43 5 7.0 12.2 0.00 0.00 0.00 56 1016.8
20260506193711 43 43 7.8 12.2 0.00 0.00 0.00 54 1016.9
20260506193609 43 5 8.7 12.2 0.00 0.00 0.00 55 1016.9
20260506193513 43 31 7.8 12.2 0.00 0.00 0.00 55 1016.9
20260506193437 43 5 5.2 11.3 0.00 0.00 0.00 55 1016.8
20260506193318 43 360 2.6 11.3 0.00 0.00 0.00 56 1016.8
20260506193205 43 360 6.1 11.3 0.00 0.00 0.00 56 1016.9
20260506193109 43 300 7.0 12.2 0.00 0.00 0.00 58 1016.9
20260506193011 43 323 5.2 13.0 0.00 0.00 0.00 56 1016.9
20260506192914 43 355 6.1 13.0 0.00 0.00 0.00 56 1017.0
20260506192818 43 5 7.0 13.0 0.00 0.00 0.00 57 1016.9
20260506192740 43 315 7.0 13.0 0.00 0.00 0.00 56 1016.9
20260506192641 43 281 4.3 13.0 0.00 0.00 0.00 55 1016.9
20260506192508 43 286 6.1 13.0 0.00 0.00 0.00 55 1016.9
20260506192431 43 319 8.7 13.0 0.00 0.00 0.00 55 1017.0
20260506192312 43 355 9.6 13.0 0.00 0.00 0.00 57 1016.9
20260506192214 43 331 8.7 13.9 0.00 0.00 0.00 57 1016.9
20260506192118 43 349 8.7 13.9 0.00 0.00 0.00 57 1016.9
20260506192022 43 34 8.7 13.9 0.00 0.00 0.00 56 1017.0
20260506191925 43 35 7.0 13.9 0.00 0.00 0.00 57 1016.9
20260506191832 43 360 6.1 13.9 0.00 0.00 0.00 57 1017.0
20260506191707 43 298 7.8 13.9 0.00 0.00 0.00 57 1016.9
20260506191631 43 302 7.8 13.9 0.00 0.00 0.00 55 1016.9
20260506191507 43 311 7.8 14.8 0.00 0.00 0.00 55 1016.9
20260506191410 43 302 9.6 14.8 0.00 0.00 0.00 55 1017.0
20260506191313 43 336 8.7 14.8 0.00 0.00 0.00 55 1017.0
20260506191219 43 329 7.0 14.8 0.00 0.00 0.00 57 1017.0
20260506191123 43 333 5.2 14.8 0.00 0.00 0.00 56 1017.0
20260506191027 43 329 7.8 14.8 0.00 0.00 0.00 56 1017.0
20260506190910 43 338 11.3 14.8 0.00 0.00 0.00 55 1017.0
20260506190831 43 360 10.4 14.8 0.00 0.00 0.00 56 1016.9
20260506190707 43 344 8.7 14.8 0.00 0.00 0.00 56 1017.1
20260506190610 43 306 7.0 14.8 0.00 0.00 0.00 56 1017.1
20260506190518 43 360 6.1 12.2 0.00 0.00 0.00 57 1017.0
20260506190443 43 294 7.0 12.2 0.00 0.00 0.00 57 1017.0
20260506190327 43 5 6.1 12.2 0.00 0.00 0.00 57 1017.0
20260506190230 43 346 6.1 12.2 0.00 0.00 0.00 57 1017.0
20260506190133 43 330 5.2 12.2 0.00 0.00 0.00 58 1017.1
20260506190014 43 17 5.2 12.2 0.00 0.00 0.00 58 1017.1
20260506185917 43 360 7.0 12.2 0.00 0.00 0.00 56 1017.0
20260506185819 43 355 9.6 12.2 0.00 0.00 0.00 57 1017.1
20260506185706 43 327 10.4 12.2 0.00 0.00 0.00 57 1017.0
20260506185608 43 319 9.6 12.2 0.00 0.00 0.00 58 1017.0
20260506185511 43 296 7.8 11.3 0.00 0.00 0.00 58 1016.9
20260506185415 43 306 7.0 11.3 0.00 0.00 0.00 57 1017.1
20260506185318 43 325 7.0 11.3 0.00 0.00 0.00 58 1017.1
20260506185240 43 338 6.1 10.4 0.00 0.00 0.00 56 1017.1
20260506185108 43 355 5.2 10.4 0.00 0.00 0.00 57 1017.1
20260506185030 43 350 5.2 10.4 0.00 0.00 0.00 57 1017.1
20260506184907 42 345 7.8 11.3 0.00 0.00 0.00 57 1017.1
20260506184810 42 346 7.0 11.3 0.00 0.00 0.00 57 1017.1
20260506184715 42 26 6.1 11.3 0.00 0.00 0.00 58 1017.0
20260506184617 42 52 5.2 12.2 0.00 0.00 0.00 58 1017.1
20260506184520 42 313 4.3 12.2 0.00 0.00 0.00 59 1017.0
20260506184408 42 360 5.2 13.0 0.00 0.00 0.00 57 1017.0
20260506184312 42 355 7.0 13.0 0.00 0.00 0.00 56 1017.1
20260506184211 42 346 8.7 13.9 0.00 0.00 0.00 57 1017.1
20260506184114 42 360 7.8 13.9 0.00 0.00 0.00 57 1017.0
20260506184017 42 355 7.8 13.9 0.00 0.00 0.00 57 1017.1
20260506183920 42 336 8.7 13.9 0.00 0.00 0.00 57 1017.1
20260506183808 42 345 8.7 13.9 0.00 0.00 0.00 57 1017.1
20260506183711 42 36 8.7 13.9 0.00 0.00 0.00 55 1017.1
20260506183614 42 355 10.4 13.9 0.00 0.00 0.00 56 1017.1
20260506183513 42 344 9.6 13.9 0.00 0.00 0.00 57 1017.1
20260506183416 42 344 7.8 13.0 0.00 0.00 0.00 58 1017.1
20260506183321 42 27 6.1 11.3 0.00 0.00 0.00 57 1017.2
20260506183207 42 5 7.0 11.3 0.00 0.00 0.00 57 1017.1
20260506183110 42 40 7.0 11.3 0.00 0.00 0.00 57 1017.1
20260506183013 42 30 6.1 13.0 0.00 0.00 0.00 58 1017.1
20260506182917 42 9 7.8 13.0 0.00 0.00 0.00 58 1017.1
20260506182819 42 36 7.8 13.0 0.00 0.00 0.00 58 1017.1
20260506182722 42 41 6.1 13.0 0.00 0.00 0.00 59 1017.1
20260506182627 42 355 7.0 13.0 0.00 0.00 0.00 58 1017.2
20260506182551 42 344 7.0 13.0 0.00 0.00 0.00 58 1017.2
20260506182406 42 5 8.7 14.8 0.00 0.00 0.00 58 1017.2
20260506182329 42 336 9.6 14.8 0.00 0.00 0.00 58 1017.1
20260506182205 42 308 8.7 14.8 0.00 0.00 0.00 58 1017.1
20260506182110 42 295 8.7 14.8 0.00 0.00 0.00 58 1017.1
20260506182017 42 315 8.7 14.8 0.00 0.00 0.00 57 1017.1
20260506181917 42 313 8.7 14.8 0.00 0.00 0.00 57 1017.1
20260506181819 42 299 8.7 14.8 0.00 0.00 0.00 57 1017.2
20260506181717 42 337 8.7 14.8 0.00 0.00 0.00 57 1017.2
20260506181617 42 344 8.7 14.8 0.00 0.00 0.00 57 1017.2
20260506181517 42 328 7.8 13.9 0.00 0.00 0.00 58 1017.2
20260506181421 42 331 7.8 13.9 0.00 0.00 0.00 57 1017.2
20260506181327 42 296 7.0 13.9 0.00 0.00 0.00 58 1017.2
20260506181208 42 344 6.1 12.2 0.00 0.00 0.00 59 1017.2
20260506181111 42 30 6.1 12.2 0.00 0.00 0.00 58 1017.2
20260506181034 42 298 4.3 13.9 0.00 0.00 0.00 58 1017.1
20260506180916 42 317 4.3 13.9 0.00 0.00 0.00 58 1017.1
20260506180840 42 55 5.2 13.9 0.00 0.00 0.00 58 1017.1
20260506180722 42 351 7.0 13.9 0.00 0.00 0.00 58 1017.1
20260506180646 42 12 7.8 13.9 0.00 0.00 0.00 58 1017.2
20260506180554 42 355 8.7 13.9 0.00 0.00 0.00 57 1017.3
20260506180406 42 347 8.7 13.9 0.00 0.00 0.00 58 1017.3
20260506180328 42 340 8.7 13.9 0.00 0.00 0.00 58 1017.2
20260506180252 42 342 9.6 13.9 0.00 0.00 0.00 58 1017.4
20260506180108 42 9 7.8 13.0 0.00 0.00 0.00 58 1017.3
20260506180031 42 23 7.8 13.0 0.00 0.00 0.00 57 1017.2
20260506175907 42 39 7.8 13.0 0.00 0.00 0.00 58 1017.2
20260506175814 42 34 7.0 13.0 0.00 0.00 0.00 59 1017.3
20260506175717 42 5 7.0 12.2 0.00 0.00 0.00 59 1017.2
20260506175642 42 336 7.8 12.2 0.00 0.00 0.00 58 1017.3
20260506175506 42 355 7.8 12.2 0.00 0.00 0.00 58 1017.3
20260506175409 42 313 7.8 13.9 0.00 0.00 0.00 57 1017.2
20260506175311 42 5 7.8 13.9 0.00 0.00 0.00 57 1017.3
20260506175216 42 355 7.0 13.9 0.00 0.00 0.00 56 1017.2
20260506175137 42 300 7.0 13.9 0.00 0.00 0.00 57 1017.3
20260506175006 42 340 7.8 13.9 0.00 0.00 0.00 58 1017.2
20260506174812 42 355 7.8 13.9 0.00 0.00 0.00 58 1017.3
20260506174716 42 310 8.7 13.9 0.00 0.00 0.00 58 1017.3
20260506174641 42 9 8.7 13.9 0.00 0.00 0.00 57 1017.2
20260506174526 42 17 7.0 11.3 0.00 0.00 0.00 57 1017.2
20260506174426 42 312 7.8 11.3 0.00 0.00 0.00 57 1017.2
20260506174327 42 317 7.8 11.3 0.00 0.00 0.00 57 1017.2
20260506174228 42 317 7.8 11.3 0.00 0.00 0.00 58 1017.2
20260506174153 42 326 7.0 15.6 0.00 0.00 0.00 58 1017.3
20260506174009 42 355 7.8 15.6 0.00 0.00 0.00 57 1017.3
20260506173911 42 338 5.2 15.6 0.00 0.00 0.00 59 1017.2
20260506173820 42 306 4.3 15.6 0.00 0.00 0.00 58 1017.3
20260506173725 42 355 4.3 15.6 0.00 0.00 0.00 57 1017.2
20260506173629 42 60 6.1 15.6 0.00 0.00 0.00 58 1017.3
20260506173532 42 18 7.0 15.6 0.00 0.00 0.00 57 1017.2
20260506173406 42 360 9.6 15.6 0.00 0.00 0.00 58 1017.4
20260506173308 42 329 8.7 15.6 0.00 0.00 0.00 59 1017.3
20260506173212 42 14 6.1 11.3 0.00 0.00 0.00 59 1017.3
20260506173119 41 303 6.1 10.4 0.00 0.00 0.00 58 1017.3
20260506173018 41 341 7.0 10.4 0.00 0.00 0.00 59 1017.2
20260506172922 41 328 7.0 10.4 0.00 0.00 0.00 58 1017.2
20260506172823 41 326 7.0 13.0 0.00 0.00 0.00 58 1017.2
20260506172723 41 313 7.0 13.9 0.00 0.00 0.00 58 1017.3
20260506172625 42 317 7.8 13.9 0.00 0.00 0.00 58 1017.2
20260506172530 41 319 7.8 13.9 0.00 0.00 0.00 58 1017.3
20260506172410 41 355 6.1 13.9 0.00 0.00 0.00 58 1017.3
20260506172312 42 306 5.2 13.9 0.00 0.00 0.00 58 1017.3
20260506172235 42 319 7.0 13.9 0.00 0.00 0.00 58 1017.3
20260506172118 42 339 9.6 13.9 0.00 0.00 0.00 57 1017.3
20260506172039 42 355 10.4 13.9 0.00 0.00 0.00 57 1017.4
20260506171920 42 348 9.6 13.9 0.00 0.00 0.00 57 1017.4
20260506171805 42 344 8.7 13.9 0.00 0.00 0.00 58 1017.3
20260506171730 42 15 7.0 13.9 0.00 0.00 0.00 58 1017.4
20260506171633 42 330 6.1 12.2 0.00 0.00 0.00 58 1017.3
20260506171508 42 9 6.1 12.2 0.00 0.00 0.00 57 1017.3
20260506171410 42 340 7.8 12.2 0.00 0.00 0.00 58 1017.4
20260506171315 42 328 7.8 12.2 0.00 0.00 0.00 59 1017.4
20260506171219 42 320 7.0 11.3 0.00 0.00 0.00 59 1017.4
20260506171108 42 11 5.2 11.3 0.00 0.00 0.00 59 1017.4
20260506171013 42 355 5.2 11.3 0.00 0.00 0.00 59 1017.4
20260506170937 42 321 4.3 11.3 0.00 0.00 0.00 59 1017.4
20260506170841 42 43 5.2 11.3 0.00 0.00 0.00 59 1017.3
20260506170724 42 19 5.2 12.2 0.00 0.00 0.00 60 1017.4
20260506170629 42 310 6.1 12.2 0.00 0.00 0.00 59 1017.4
20260506170531 42 336 7.8 12.2 0.00 0.00 0.00 59 1017.5
20260506170414 42 48 8.7 12.2 0.00 0.00 0.00 57 1017.4
20260506170320 42 360 7.8 12.2 0.00 0.00 0.00 58 1017.4
20260506170223 42 355 7.8 12.2 0.00 0.00 0.00 58 1017.6
20260506170108 42 31 7.8 12.2 0.00 0.00 0.00 59 1017.4
20260506170011 42 344 7.0 12.2 0.00 0.00 0.00 59 1017.4
20260506165934 42 18 7.8 12.2 0.00 0.00 0.00 58 1017.5
20260506165838 42 24 7.0 10.4 0.00 0.00 0.00 58 1017.4
20260506165720 42 355 7.0 10.4 0.00 0.00 0.00 58 1017.4
20260506165609 42 15 7.0 10.4 0.00 0.00 0.00 59 1017.4
20260506165512 42 17 6.1 10.4 0.00 0.00 0.00 59 1017.5
20260506165416 42 14 6.1 10.4 0.00 0.00 0.00 60 1017.4
20260506165320 42 39 4.3 10.4 0.00 0.00 0.00 59 1017.5
20260506165245 42 325 6.1 10.4 0.00 0.00 0.00 59 1017.4
20260506165127 42 319 7.0 10.4 0.00 0.00 0.00 58 1017.5
20260506165012 42 345 6.1 11.3 0.00 0.00 0.00 60 1017.5
20260506164936 41 311 5.2 12.2 0.00 0.00 0.00 59 1017.6
20260506164839 41 301 5.2 12.2 0.00 0.00 0.00 60 1017.6
20260506164742 41 351 5.2 12.2 0.00 0.00 0.00 60 1017.6
20260506164606 41 5 5.2 12.2 0.00 0.00 0.00 59 1017.5
20260506164530 41 21 6.1 12.2 0.00 0.00 0.00 59 1017.6
20260506164407 41 49 5.2 12.2 0.00 0.00 0.00 60 1017.7
20260506164310 41 17 6.1 12.2 0.00 0.00 0.00 59 1017.6
20260506164215 41 53 7.8 12.2 0.00 0.00 0.00 59 1017.6
20260506164114 41 360 7.0 12.2 0.00 0.00 0.00 59 1017.5
20260506164034 41 355 7.0 12.2 0.00 0.00 0.00 59 1017.5
20260506163909 41 10 7.0 11.3 0.00 0.00 0.00 59 1017.5
20260506163811 41 5 7.0 11.3 0.00 0.00 0.00 59 1017.5
20260506163732 41 33 6.1 11.3 0.00 0.00 0.00 59 1017.6
20260506163613 41 19 6.1 13.0 0.00 0.00 0.00 59 1017.6
20260506163518 41 18 7.0 13.0 0.00 0.00 0.00 58 1017.6
20260506163419 41 32 7.0 13.0 0.00 0.00 0.00 58 1017.6
20260506163321 41 30 7.8 13.0 0.00 0.00 0.00 59 1017.5
20260506163222 41 13 7.8 13.0 0.00 0.00 0.00 59 1017.5
20260506163142 41 19 7.0 13.0 0.00 0.00 0.00 59 1017.5
20260506163023 41 342 6.1 13.0 0.00 0.00 0.00 58 1017.5
20260506162908 41 344 8.7 13.0 0.00 0.00 0.00 59 1017.5
20260506162829 41 15 7.8 13.0 0.00 0.00 0.00 60 1017.5
20260506162730 41 360 7.0 13.0 0.00 0.00 0.00 59 1017.5
20260506162610 41 12 7.8 13.0 0.00 0.00 0.00 59 1017.4
20260506162531 41 355 9.6 15.6 0.00 0.00 0.00 59 1017.5
20260506162431 41 355 8.7 15.6 0.00 0.00 0.00 59 1017.5
20260506162331 41 337 6.1 15.6 0.00 0.00 0.00 60 1017.5
20260506162215 41 328 7.0 15.6 0.00 0.00 0.00 60 1017.4
20260506162139 41 309 7.0 15.6 0.00 0.00 0.00 60 1017.4
20260506162006 41 19 4.3 15.6 0.00 0.00 0.00 62 1017.5
20260506161911 41 330 5.2 15.6 0.00 0.00 0.00 61 1017.4
20260506161815 41 350 8.7 15.6 0.00 0.00 0.00 60 1017.4
20260506161716 41 336 7.8 15.6 0.00 0.00 0.00 60 1017.4
20260506161621 41 342 7.0 13.0 0.00 0.00 0.00 60 1017.4
20260506161525 41 355 7.8 13.0 0.00 0.00 0.00 60 1017.4
20260506161411 41 311 7.8 13.0 0.00 0.00 0.00 61 1017.4
20260506161315 41 331 7.8 13.0 0.00 0.00 0.00 61 1017.3
20260506161221 41 318 7.0 11.3 0.00 0.00 0.00 60 1017.4
20260506161124 41 319 6.1 10.4 0.00 0.00 0.00 60 1017.4
20260506161008 41 331 6.1 9.6 0.00 0.00 0.00 60 1017.4
20260506160913 41 355 6.1 9.6 0.00 0.00 0.00 60 1017.4
20260506160838 41 19 6.1 9.6 0.00 0.00 0.00 60 1017.4
20260506160727 41 338 7.0 9.6 0.00 0.00 0.00 60 1017.4
20260506160629 41 349 7.0 9.6 0.00 0.00 0.00 60 1017.4
20260506160506 41 341 7.0 9.6 0.00 0.00 0.00 61 1017.4
20260506160411 41 5 6.1 9.6 0.00 0.00 0.00 61 1017.4
20260506160336 41 350 4.3 9.6 0.00 0.00 0.00 61 1017.4
20260506160218 41 355 5.2 11.3 0.00 0.00 0.00 61 1017.4
20260506160123 41 5 5.2 12.2 0.00 0.00 0.00 60 1017.4
20260506160027 41 323 4.3 12.2 0.00 0.00 0.00 61 1017.4
20260506155911 41 5 5.2 12.2 0.00 0.00 0.00 61 1017.4
20260506155814 40 14 4.3 12.2 0.00 0.00 0.00 61 1017.4
20260506155718 40 16 5.2 12.2 0.00 0.00 0.00 61 1017.4
20260506155623 40 5 6.1 12.2 0.00 0.00 0.00 61 1017.4
20260506155508 40 46 6.1 12.2 0.00 0.00 0.00 61 1017.4
20260506155416 40 336 6.1 12.2 0.00 0.00 0.00 60 1017.4
20260506155318 40 355 7.0 12.2 0.00 0.00 0.00 61 1017.4
20260506155223 40 360 6.1 12.2 0.00 0.00 0.00 61 1017.4
20260506155125 40 360 6.1 12.2 0.00 0.00 0.00 61 1017.4
20260506155025 40 5 5.2 12.2 0.00 0.00 0.00 61 1017.4
20260506154926 40 15 7.0 12.2 0.00 0.00 0.00 61 1017.4
20260506154810 40 27 7.8 12.2 0.00 0.00 0.00 60 1017.4
20260506154712 40 355 7.0 12.2 0.00 0.00 0.00 61 1017.4
20260506154632 40 11 4.3 12.2 0.00 0.00 0.00 61 1017.4
20260506154512 40 44 6.1 12.2 0.00 0.00 0.00 61 1017.4
20260506154414 40 19 7.0 12.2 0.00 0.00 0.00 61 1017.4
20260506154335 40 342 7.0 12.2 0.00 0.00 0.00 61 1017.4
20260506154209 40 355 5.2 11.3 0.00 0.00 0.00 61 1017.4
20260506154135 40 5 5.2 11.3 0.00 0.00 0.00 61 1017.4
20260506154009 40 360 6.1 11.3 0.00 0.00 0.00 61 1017.3
20260506153908 40 360 5.2 11.3 0.00 0.00 0.00 61 1017.4
20260506153810 40 26 5.2 11.3 0.00 0.00 0.00 61 1017.4
20260506153730 40 351 4.3 10.4 0.00 0.00 0.00 61 1017.4
20260506153611 40 36 6.1 10.4 0.00 0.00 0.00 61 1017.4
20260506153513 40 26 7.0 10.4 0.00 0.00 0.00 60 1017.4
20260506153418 40 331 7.0 10.4 0.00 0.00 0.00 60 1017.4
20260506153339 40 345 6.1 11.3 0.00 0.00 0.00 61 1017.3
20260506153219 40 340 6.1 11.3 0.00 0.00 0.00 61 1017.4
20260506153141 40 343 6.1 12.2 0.00 0.00 0.00 61 1017.3
20260506153040 40 308 6.1 12.2 0.00 0.00 0.00 61 1017.4
20260506152920 40 298 7.8 12.2 0.00 0.00 0.00 60 1017.4
20260506152822 40 30 7.8 12.2 0.00 0.00 0.00 60 1017.4
20260506152708 40 355 7.8 12.2 0.00 0.00 0.00 61 1017.3
20260506152609 40 336 8.7 12.2 0.00 0.00 0.00 60 1017.4
20260506152509 40 360 8.7 12.2 0.00 0.00 0.00 60 1017.4
20260506152411 40 5 7.8 12.2 0.00 0.00 0.00 60 1017.4
20260506152313 40 360 6.1 12.2 0.00 0.00 0.00 61 1017.4
20260506152215 40 315 6.1 11.3 0.00 0.00 0.00 62 1017.3
20260506152121 40 309 6.1 11.3 0.00 0.00 0.00 61 1017.3
20260506152047 40 328 6.1 11.3 0.00 0.00 0.00 62 1017.3
20260506151927 40 360 6.1 12.2 0.00 0.00 0.00 61 1017.3
20260506151808 40 320 7.0 12.2 0.00 0.00 0.00 60 1017.3
20260506151710 40 19 7.8 12.2 0.00 0.00 0.00 60 1017.2
20260506151612 40 350 8.7 12.2 0.00 0.00 0.00 60 1017.2
20260506151514 40 344 8.7 12.2 0.00 0.00 0.00 60 1017.3
20260506151420 40 355 8.7 13.0 0.00 0.00 0.00 60 1017.3
20260506151321 40 355 8.7 13.0 0.00 0.00 0.00 60 1017.3
20260506151223 40 360 7.8 13.0 0.00 0.00 0.00 60 1017.4
20260506151125 40 32 7.8 13.0 0.00 0.00 0.00 60 1017.3
20260506151025 40 355 7.0 13.0 0.00 0.00 0.00 61 1017.4
20260506150926 40 30 7.0 13.0 0.00 0.00 0.00 61 1017.4
20260506150812 40 12 8.7 13.0 0.00 0.00 0.00 61 1017.4
20260506150713 40 24 8.7 13.0 0.00 0.00 0.00 61 1017.4
20260506150635 40 35 7.8 13.0 0.00 0.00 0.00 61 1017.4
20260506150556 40 5 5.2 11.3 0.00 0.00 0.00 61 1017.4
20260506150408 40 355 7.0 11.3 0.00 0.00 0.00 61 1017.4
20260506150310 40 338 7.8 11.3 0.00 0.00 0.00 60 1017.5
20260506150211 40 30 7.8 11.3 0.00 0.00 0.00 61 1017.5
20260506150115 40 355 8.7 11.3 0.00 0.00 0.00 61 1017.4
20260506150017 40 339 7.8 12.2 0.00 0.00 0.00 61 1017.3
20260506145918 40 315 7.0 12.2 0.00 0.00 0.00 61 1017.4
20260506145820 40 333 5.2 12.2 0.00 0.00 0.00 62 1017.4
20260506145740 40 304 5.2 12.2 0.00 0.00 0.00 62 1017.3
20260506145621 40 338 6.1 12.2 0.00 0.00 0.00 62 1017.4
20260506145522 40 345 7.0 12.2 0.00 0.00 0.00 61 1017.3
20260506145444 40 325 8.7 12.2 0.00 0.00 0.00 61 1017.3
20260506145326 40 319 7.8 12.2 0.00 0.00 0.00 61 1017.3
20260506145227 40 304 7.8 12.2 0.00 0.00 0.00 62 1017.4
20260506145127 40 323 4.3 10.4 0.00 0.00 0.00 63 1017.4
20260506145010 40 355 3.5 13.0 0.00 0.00 0.00 63 1017.4
20260506144915 40 288 3.5 14.8 0.00 0.00 0.00 63 1017.4
20260506144819 40 315 4.3 14.8 0.00 0.00 0.00 63 1017.3
20260506144723 40 306 4.3 14.8 0.00 0.00 0.00 62 1017.4
20260506144608 39 337 7.0 14.8 0.00 0.00 0.00 61 1017.4
20260506144508 39 338 7.8 14.8 0.00 0.00 0.00 61 1017.2
20260506144409 39 341 7.8 14.8 0.00 0.00 0.00 61 1017.4
20260506144310 39 320 7.8 14.8 0.00 0.00 0.00 61 1017.4
20260506144231 39 341 8.7 14.8 0.00 0.00 0.00 61 1017.4
20260506144112 40 360 8.7 14.8 0.00 0.00 0.00 62 1017.4
20260506144017 39 355 7.0 13.9 0.00 0.00 0.00 62 1017.4
20260506143939 39 5 5.2 13.9 0.00 0.00 0.00 63 1017.3
20260506143840 39 360 6.1 13.9 0.00 0.00 0.00 62 1017.3
20260506143719 39 11 7.0 13.9 0.00 0.00 0.00 61 1017.4
20260506143621 39 355 9.6 13.9 0.00 0.00 0.00 61 1017.4
20260506143542 39 45 7.8 13.9 0.00 0.00 0.00 61 1017.4
20260506143423 40 34 6.1 12.2 0.00 0.00 0.00 62 1017.4
20260506143324 40 30 6.1 12.2 0.00 0.00 0.00 62 1017.3
20260506143209 40 321 7.0 12.2 0.00 0.00 0.00 62 1017.2
20260506143111 40 5 7.0 12.2 0.00 0.00 0.00 62 1017.2
20260506143013 40 348 7.0 12.2 0.00 0.00 0.00 62 1017.2
20260506142934 40 344 7.8 12.2 0.00 0.00 0.00 63 1017.3
20260506142837 40 5 6.1 10.4 0.00 0.00 0.00 63 1017.2
20260506142720 40 23 6.1 11.3 0.00 0.00 0.00 63 1017.2
20260506142624 40 322 5.2 11.3 0.00 0.00 0.00 63 1017.2
20260506142512 40 22 6.1 11.3 0.00 0.00 0.00 63 1017.2
20260506142438 40 13 6.1 11.3 0.00 0.00 0.00 63 1017.1
20260506142340 40 319 5.2 11.3 0.00 0.00 0.00 64 1017.1
20260506142223 40 360 3.5 11.3 0.00 0.00 0.00 64 1017.1
20260506142107 40 313 3.5 11.3 0.00 0.00 0.00 64 1017.1
20260506142011 40 295 6.1 11.3 0.00 0.00 0.00 63 1017.2
20260506141915 40 346 6.1 11.3 0.00 0.00 0.00 63 1017.2
20260506141823 40 350 6.1 11.3 0.00 0.00 0.00 63 1017.2
20260506141707 39 13 6.1 11.3 0.00 0.00 0.00 63 1017.1
20260506141613 39 336 7.0 11.3 0.00 0.00 0.00 62 1017.1
20260506141515 39 355 6.1 11.3 0.00 0.00 0.00 62 1017.2
20260506141436 39 11 7.8 11.3 0.00 0.00 0.00 63 1017.2
20260506141319 39 28 8.7 11.3 0.00 0.00 0.00 62 1017.2
20260506141240 39 350 7.8 11.3 0.00 0.00 0.00 63 1017.2
20260506141106 39 12 7.0 11.3 0.00 0.00 0.00 64 1017.2
20260506141010 39 29 7.0 11.3 0.00 0.00 0.00 63 1017.1
20260506140914 39 344 7.8 11.3 0.00 0.00 0.00 63 1017.1
20260506140815 39 355 7.0 11.3 0.00 0.00 0.00 64 1017.2
20260506140716 39 350 7.0 11.3 0.00 0.00 0.00 64 1017.2
20260506140606 39 327 5.2 9.6 0.00 0.00 0.00 64 1017.1
20260506140511 39 28 4.3 10.4 0.00 0.00 0.00 65 1017.2
20260506140415 39 22 5.2 10.4 0.00 0.00 0.00 65 1017.2
20260506140320 39 11 6.1 11.3 0.00 0.00 0.00 64 1017.2
20260506140223 39 5 6.1 11.3 0.00 0.00 0.00 65 1017.1
20260506140108 39 360 7.0 11.3 0.00 0.00 0.00 64 1017.2
20260506140014 39 355 7.0 13.0 0.00 0.00 0.00 65 1017.1
20260506135920 39 20 5.2 13.0 0.00 0.00 0.00 65 1017.2
20260506135825 39 23 5.2 13.0 0.00 0.00 0.00 64 1017.2
20260506135727 39 346 7.0 13.0 0.00 0.00 0.00 65 1017.1
20260506135610 38 5 6.1 13.0 0.00 0.00 0.00 65 1017.1
20260506135512 38 339 5.2 13.0 0.00 0.00 0.00 66 1017.1
20260506135420 38 360 6.1 13.0 0.00 0.00 0.00 65 1017.1
20260506135321 38 13 7.8 13.0 0.00 0.00 0.00 65 1017.1
20260506135224 38 32 8.7 13.0 0.00 0.00 0.00 65 1017.1
20260506135106 38 360 7.0 11.3 0.00 0.00 0.00 67 1017.1
20260506135011 38 5 6.1 11.3 0.00 0.00 0.00 67 1017.0
20260506134916 38 355 7.0 11.3 0.00 0.00 0.00 68 1017.0
20260506134805 38 23 7.8 11.3 0.00 0.00 0.00 68 1017.1
20260506134729 37 335 7.0 11.3 0.00 0.00 0.00 69 1017.1
20260506134607 37 5 5.2 9.6 0.00 0.00 0.00 69 1017.0
20260506134513 37 32 5.2 9.6 0.00 0.00 0.00 69 1017.1
20260506134418 37 16 6.1 9.6 0.00 0.00 0.00 69 1017.0
20260506134323 37 314 7.0 9.6 0.00 0.00 0.00 69 1017.0
20260506134209 37 360 7.0 9.6 0.00 0.00 0.00 70 1017.0
20260506134134 36 5 5.2 10.4 0.00 0.00 0.00 70 1016.9
20260506134013 36 355 4.3 10.4 0.00 0.00 0.00 70 1017.0
20260506133914 36 32 4.3 10.4 0.00 0.00 0.00 71 1017.0
20260506133834 36 24 4.3 10.4 0.00 0.00 0.00 71 1017.0
20260506133708 36 19 4.3 10.4 0.00 0.00 0.00 70 1016.9
20260506133610 35 355 5.2 10.4 0.00 0.00 0.00 70 1017.0
20260506133534 35 332 5.2 10.4 0.00 0.00 0.00 70 1017.0
20260506133408 35 26 7.0 10.4 0.00 0.00 0.00 70 1016.9
20260506133312 35 360 6.1 10.4 0.00 0.00 0.00 70 1016.9
20260506133235 35 329 6.1 10.4 0.00 0.00 0.00 71 1016.9
20260506133115 35 355 4.3 8.7 0.00 0.00 0.00 71 1016.9
20260506133017 35 313 4.3 8.7 0.00 0.00 0.00 71 1016.9
20260506132920 35 340 3.5 8.7 0.00 0.00 0.00 71 1016.9
20260506132827 35 32 2.6 8.7 0.00 0.00 0.00 71 1016.9
20260506132751 35 315 3.5 8.7 0.00 0.00 0.00 71 1017.0
20260506132606 35 34 4.3 8.7 0.00 0.00 0.00 70 1017.0
20260506132531 35 38 3.5 8.7 0.00 0.00 0.00 70 1016.9
20260506132407 35 360 5.2 8.7 0.00 0.00 0.00 70 1016.9
20260506132310 35 355 5.2 8.7 0.00 0.00 0.00 70 1016.9
20260506132217 35 355 3.5 7.8 0.00 0.00 0.00 70 1016.9
20260506132140 35 355 2.6 7.0 0.00 0.00 0.00 70 1016.8
20260506132022 35 5 2.6 7.0 0.00 0.00 0.00 71 1016.8
20260506131926 35 360 3.5 7.0 0.00 0.00 0.00 71 1016.8
20260506131808 35 332 3.5 7.0 0.00 0.00 0.00 71 1016.7
20260506131710 35 339 3.5 7.0 0.00 0.00 0.00 71 1016.7
20260506131613 35 355 3.5 7.0 0.00 0.00 0.00 71 1016.7
20260506131520 35 323 4.3 7.0 0.00 0.00 0.00 71 1016.7
20260506131424 35 9 4.3 7.0 0.00 0.00 0.00 71 1016.6
20260506131327 35 342 3.5 7.0 0.00 0.00 0.00 71 1016.7
20260506131209 35 355 3.5 5.2 0.00 0.00 0.00 71 1016.6
20260506131112 35 321 3.5 5.2 0.00 0.00 0.00 71 1016.6
20260506131015 35 5 3.5 4.3 0.00 0.00 0.00 71 1016.6
20260506130918 35 5 2.6 4.3 0.00 0.00 0.00 71 1016.6
20260506130805 35 350 2.6 4.3 0.00 0.00 0.00 72 1016.6
20260506130709 35 11 2.6 4.3 0.00 0.00 0.00 71 1016.5
20260506130632 35 11 2.6 4.3 0.00 0.00 0.00 72 1016.5
20260506130507 35 24 1.7 4.3 0.00 0.00 0.00 72 1016.5
20260506130431 35 33 1.7 4.3 0.00 0.00 0.00 71 1016.5
20260506130313 35 32 2.6 4.3 0.00 0.00 0.00 71 1016.5
20260506130220 35 29 3.5 4.3 0.00 0.00 0.00 71 1016.5
20260506130123 35 32 2.6 4.3 0.00 0.00 0.00 72 1016.5
20260506130027 35 11 1.7 5.2 0.00 0.00 0.00 72 1016.4
20260506125910 35 10 1.7 7.0 0.00 0.00 0.00 72 1016.4
20260506125813 35 11 2.6 7.0 0.00 0.00 0.00 72 1016.4
20260506125717 35 342 2.6 7.0 0.00 0.00 0.00 72 1016.4
20260506125619 34 5 2.6 7.8 0.00 0.00 0.00 72 1016.4
20260506125506 34 360 2.6 7.8 0.00 0.00 0.00 72 1016.4
20260506125408 34 350 3.5 7.8 0.00 0.00 0.00 73 1016.4
20260506125312 34 5 3.5 7.8 0.00 0.00 0.00 72 1016.3
20260506125213 34 5 4.3 7.8 0.00 0.00 0.00 72 1016.4
20260506125116 34 325 4.3 7.8 0.00 0.00 0.00 72 1016.3
20260506125019 34 311 2.6 7.8 0.00 0.00 0.00 72 1016.3
20260506124906 34 5 3.5 7.8 0.00 0.00 0.00 73 1016.3
20260506124829 34 348 3.5 7.8 0.00 0.00 0.00 73 1016.3
20260506124705 34 320 2.6 5.2 0.00 0.00 0.00 73 1016.3
20260506124608 34 355 1.7 4.3 0.00 0.00 0.00 73 1016.3
20260506124532 34 331 2.6 7.8 0.00 0.00 0.00 73 1016.2
20260506124407 34 325 2.6 7.8 0.00 0.00 0.00 73 1016.3
20260506124314 34 311 2.6 7.8 0.00 0.00 0.00 73 1016.2
20260506124218 34 309 2.6 7.8 0.00 0.00 0.00 73 1016.3
20260506124141 34 299 1.7 7.8 0.00 0.00 0.00 73 1016.2
20260506124023 34 298 1.7 7.8 0.00 0.00 0.00 73 1016.1
20260506123908 34 350 2.6 7.8 0.00 0.00 0.00 73 1016.2
20260506123811 34 348 3.5 7.8 0.00 0.00 0.00 73 1016.2
20260506123715 34 345 3.5 7.8 0.00 0.00 0.00 73 1016.2
20260506123642 34 338 3.5 7.0 0.00 0.00 0.00 73 1016.1
20260506123524 34 317 3.5 7.0 0.00 0.00 0.00 74 1016.1
20260506123428 34 306 3.5 7.0 0.00 0.00 0.00 74 1016.1
20260506123352 34 315 2.6 7.0 0.00 0.00 0.00 74 1016.1
20260506123208 34 337 3.5 7.0 0.00 0.00 0.00 73 1016.1
20260506123112 34 313 3.5 7.0 0.00 0.00 0.00 73 1016.1
20260506123016 34 321 2.6 7.0 0.00 0.00 0.00 74 1016.1
20260506122924 34 337 2.6 5.2 0.00 0.00 0.00 74 1016.1
20260506122828 34 355 3.5 5.2 0.00 0.00 0.00 74 1016.2
20260506122752 34 5 2.6 5.2 0.00 0.00 0.00 74 1016.1
20260506122608 33 344 1.7 7.8 0.00 0.00 0.00 74 1016.1
20260506122532 33 343 2.6 7.8 0.00 0.00 0.00 74 1016.2
20260506122407 33 343 2.6 7.8 0.00 0.00 0.00 74 1016.1
20260506122310 33 355 3.5 7.8 0.00 0.00 0.00 74 1016.1
20260506122238 33 339 3.5 7.8 0.00 0.00 0.00 74 1016.1
20260506122121 33 301 3.5 8.7 0.00 0.00 0.00 74 1016.1
20260506122005 33 5 3.5 8.7 0.00 0.00 0.00 74 1016.1
20260506121909 33 346 4.3 8.7 0.00 0.00 0.00 74 1016.0
20260506121814 33 308 4.3 8.7 0.00 0.00 0.00 74 1016.1
20260506121738 33 325 3.5 8.7 0.00 0.00 0.00 74 1016.1
20260506121606 33 304 3.5 8.7 0.00 0.00 0.00 74 1016.0
20260506121530 33 334 4.3 8.7 0.00 0.00 0.00 74 1016.0
20260506121407 33 341 4.3 8.7 0.00 0.00 0.00 74 1016.0
20260506121331 33 322 3.5 7.8 0.00 0.00 0.00 74 1016.0
20260506121215 33 319 3.5 7.0 0.00 0.00 0.00 74 1016.0
20260506121119 33 339 3.5 7.0 0.00 0.00 0.00 74 1016.0
20260506121023 33 355 3.5 7.0 0.00 0.00 0.00 74 1015.9
20260506120930 33 325 3.5 7.0 0.00 0.00 0.00 74 1015.9
20260506120807 33 334 4.3 7.0 0.00 0.00 0.00 74 1015.9
20260506120731 33 319 3.5 7.0 0.00 0.00 0.00 75 1015.9
20260506120608 33 302 3.5 7.0 0.00 0.00 0.00 75 1015.9
20260506120513 33 308 3.5 7.0 0.00 0.00 0.00 74 1015.9
20260506120418 33 348 2.6 7.0 0.00 0.00 0.00 74 1015.9
20260506120305 33 341 2.6 7.0 0.00 0.00 0.00 74 1015.9
20260506120209 33 310 3.5 7.0 0.00 0.00 0.00 74 1015.8
20260506120113 33 309 4.3 7.0 0.00 0.00 0.00 74 1015.9
20260506120017 33 341 3.5 7.0 0.00 0.00 0.00 74 1015.8
20260506115919 33 316 2.6 5.2 0.00 0.00 0.00 75 1015.8
20260506115844 33 319 2.6 5.2 0.00 0.00 0.00 75 1015.8
20260506115712 33 316 2.6 7.0 0.00 0.00 0.00 75 1015.8
20260506115615 33 334 2.6 7.0 0.00 0.00 0.00 75 1015.8
20260506115520 33 349 3.5 7.0 0.00 0.00 0.00 75 1015.9
20260506115405 33 9 3.5 7.0 0.00 0.00 0.00 75 1015.8
20260506115329 33 305 2.6 7.0 0.00 0.00 0.00 75 1015.8
20260506115206 33 348 2.6 7.0 0.00 0.00 0.00 75 1015.8
20260506115115 33 325 2.6 7.0 0.00 0.00 0.00 75 1015.8
20260506115018 33 350 3.5 7.0 0.00 0.00 0.00 75 1015.8
20260506114923 33 302 3.5 7.0 0.00 0.00 0.00 75 1015.8
20260506114826 33 5 3.5 7.0 0.00 0.00 0.00 75 1015.7
20260506114730 33 344 3.5 7.0 0.00 0.00 0.00 75 1015.7
20260506114613 33 346 2.6 7.0 0.00 0.00 0.00 75 1015.7
20260506114516 33 338 1.7 7.0 0.00 0.00 0.00 75 1015.7
20260506114406 33 335 2.6 7.0 0.00 0.00 0.00 75 1015.6
20260506114329 33 315 2.6 7.0 0.00 0.00 0.00 75 1015.6
20260506114206 33 314 2.6 7.0 0.00 0.00 0.00 74 1015.6
20260506114111 33 320 3.5 7.0 0.00 0.00 0.00 74 1015.6
20260506114036 33 323 3.5 7.0 0.00 0.00 0.00 74 1015.6
20260506113918 33 342 4.3 7.0 0.00 0.00 0.00 74 1015.6
20260506113807 33 338 3.5 6.1 0.00 0.00 0.00 74 1015.6
20260506113732 33 338 2.6 5.2 0.00 0.00 0.00 75 1015.5
20260506113608 33 355 2.6 5.2 0.00 0.00 0.00 74 1015.6
20260506113511 33 302 2.6 7.8 0.00 0.00 0.00 74 1015.6
20260506113417 33 295 2.6 7.8 0.00 0.00 0.00 74 1015.6
20260506113321 33 299 3.5 7.8 0.00 0.00 0.00 74 1015.6
20260506113227 33 338 3.5 7.8 0.00 0.00 0.00 74 1015.6
20260506113113 33 313 3.5 7.8 0.00 0.00 0.00 74 1015.5
20260506113019 33 315 2.6 7.8 0.00 0.00 0.00 74 1015.5
20260506112923 33 5 3.5 7.8 0.00 0.00 0.00 74 1015.5
20260506112808 33 311 4.3 7.8 0.00 0.00 0.00 74 1015.6
20260506112712 33 316 4.3 7.8 0.00 0.00 0.00 74 1015.7
20260506112637 33 327 4.3 7.8 0.00 0.00 0.00 74 1015.6
20260506112523 33 323 3.5 7.0 0.00 0.00 0.00 75 1015.7
20260506112408 33 303 2.6 4.3 0.00 0.00 0.00 75 1015.6
20260506112313 33 304 2.6 4.3 0.00 0.00 0.00 75 1015.6
20260506112218 33 306 1.7 4.3 0.00 0.00 0.00 75 1015.6
20260506112142 33 306 1.7 4.3 0.00 0.00 0.00 75 1015.5
20260506112005 33 313 1.7 4.3 0.00 0.00 0.00 75 1015.6
20260506111930 33 314 1.7 4.3 0.00 0.00 0.00 75 1015.6
20260506111818 33 314 1.7 4.3 0.00 0.00 0.00 75 1015.6
20260506111721 33 341 2.6 4.3 0.00 0.00 0.00 75 1015.7
20260506111605 33 305 2.6 4.3 0.00 0.00 0.00 75 1015.6
20260506111529 33 306 2.6 4.3 0.00 0.00 0.00 75 1015.6
20260506111406 33 360 2.6 4.3 0.00 0.00 0.00 75 1015.7
20260506111309 33 299 2.6 4.3 0.00 0.00 0.00 75 1015.7
20260506111238 33 329 3.5 4.3 0.00 0.00 0.00 75 1015.6
20260506111120 33 304 3.5 4.3 0.00 0.00 0.00 75 1015.6
20260506111023 33 314 2.6 4.3 0.00 0.00 0.00 75 1015.6
20260506110906 33 312 2.6 4.3 0.00 0.00 0.00 75 1015.7
20260506110811 33 298 2.6 4.3 0.00 0.00 0.00 75 1015.6
20260506110737 33 337 2.6 4.3 0.00 0.00 0.00 75 1015.6
20260506110640 33 326 2.6 4.3 0.00 0.00 0.00 75 1015.6
20260506110506 33 355 2.6 4.3 0.00 0.00 0.00 75 1015.6
20260506110410 33 336 2.6 4.3 0.00 0.00 0.00 75 1015.6
20260506110315 33 326 2.6 5.2 0.00 0.00 0.00 76 1015.5
20260506110220 33 336 2.6 5.2 0.00 0.00 0.00 75 1015.6
20260506110145 33 328 2.6 5.2 0.00 0.00 0.00 75 1015.6
20260506110048 33 306 2.6 5.2 0.00 0.00 0.00 75 1015.5
20260506105952 33 307 2.6 5.2 0.00 0.00 0.00 75 1015.5
20260506105807 33 327 2.6 5.2 0.00 0.00 0.00 75 1015.4